Wetterdaten: Samstag, 18.07.2015
Datum Zeit Temp. Aussen +5cm Feuchte Auss BlattFeu 1 Luftdruck Regen Sonnenschein Regendauer Solar Windben
18.07.2015 00:00 22,6 C 19,4 C 78 % 0 lf 1013,3 hPa 0,0 l/m 0 min 0 min 0 W/m 0,0 km/h (0 Bft)
18.07.2015 00:02 22,6 C 19,4 C 78 % 0 lf 1013,4 hPa 0,0 l/m 0 min 0 min 0 W/m 0,0 km/h (0 Bft)
18.07.2015 00:05 22,5 C 19,4 C 78 % 0 lf 1013,4 hPa 0,0 l/m 0 min 0 min 0 W/m 0,0 km/h (0 Bft)
18.07.2015 00:08 22,4 C 19,4 C 78 % 0 lf 1013,5 hPa 0,0 l/m 0 min 0 min 0 W/m 0,0 km/h (0 Bft)
18.07.2015 00:10 22,3 C 19,4 C 78 % 0 lf 1013,4 hPa 0,0 l/m 0 min 0 min 0 W/m 0,0 km/h (0 Bft)
18.07.2015 00:12 22,3 C 19,4 C 78 % 0 lf 1013,4 hPa 0,0 l/m 0 min 0 min 0 W/m 0,0 km/h (0 Bft)
18.07.2015 00:14 22,3 C 19,4 C 78 % 0 lf 1013,5 hPa 0,0 l/m 0 min 0 min 0 W/m 0,0 km/h (0 Bft)
18.07.2015 00:16 22,2 C 19,4 C 79 % 0 lf 1013,5 hPa 0,0 l/m 0 min 0 min 0 W/m 0,0 km/h (0 Bft)
18.07.2015 00:18 22,2 C 19,4 C 79 % 0 lf 1013,5 hPa 0,0 l/m 0 min 0 min 0 W/m 0,0 km/h (0 Bft)
18.07.2015 00:20 22,1 C 19,4 C 79 % 0 lf 1013,5 hPa 0,0 l/m 0 min 0 min 0 W/m 0,0 km/h (0 Bft)
18.07.2015 00:22 22,1 C 19,4 C 79 % 0 lf 1013,5 hPa 0,0 l/m 0 min 0 min 0 W/m 2,1 km/h (1 Bft)
18.07.2015 00:24 22,1 C 18,9 C 79 % 0 lf 1013,5 hPa 0,0 l/m 0 min 0 min 0 W/m 4,2 km/h (1 Bft)
18.07.2015 00:26 22,0 C 18,9 C 80 % 0 lf 1013,5 hPa 0,0 l/m 0 min 0 min 0 W/m 4,2 km/h (1 Bft)
18.07.2015 00:28 21,9 C 18,9 C 80 % 0 lf 1013,4 hPa 0,0 l/m 0 min 0 min 0 W/m 6,3 km/h (2 Bft)
18.07.2015 00:30 21,9 C 18,9 C 80 % 0 lf 1013,5 hPa 0,0 l/m 0 min 0 min 0 W/m 4,2 km/h (1 Bft)
18.07.2015 00:32 21,8 C 18,9 C 80 % 0 lf 1013,6 hPa 0,0 l/m 0 min 0 min 0 W/m 4,2 km/h (1 Bft)
18.07.2015 00:34 21,8 C 18,9 C 80 % 0 lf 1013,7 hPa 0,0 l/m 0 min 0 min 0 W/m 4,2 km/h (1 Bft)
18.07.2015 00:36 21,8 C 18,9 C 80 % 0 lf 1013,8 hPa 0,0 l/m 0 min 0 min 0 W/m 4,2 km/h (1 Bft)
18.07.2015 00:38 21,7 C 18,9 C 80 % 0 lf 1013,7 hPa 0,0 l/m 0 min 0 min 0 W/m 6,3 km/h (2 Bft)
18.07.2015 00:40 21,7 C 18,9 C 80 % 0 lf 1013,7 hPa 0,0 l/m 0 min 0 min 0 W/m 4,2 km/h (1 Bft)
18.07.2015 00:42 21,6 C 18,9 C 81 % 0 lf 1013,8 hPa 0,0 l/m 0 min 0 min 0 W/m 2,1 km/h (1 Bft)
18.07.2015 00:44 21,6 C 18,9 C 81 % 0 lf 1013,7 hPa 0,0 l/m 0 min 0 min 0 W/m 4,2 km/h (1 Bft)
18.07.2015 00:46 21,6 C 18,9 C 81 % 0 lf 1013,6 hPa 0,0 l/m 0 min 0 min 0 W/m 2,1 km/h (1 Bft)
18.07.2015 00:48 21,5 C 18,9 C 81 % 0 lf 1013,6 hPa 0,0 l/m 0 min 0 min 0 W/m 2,1 km/h (1 Bft)
18.07.2015 00:50 21,5 C 18,9 C 81 % 0 lf 1013,6 hPa 0,0 l/m 0 min 0 min 0 W/m 2,1 km/h (1 Bft)
18.07.2015 00:52 21,4 C 18,9 C 81 % 0 lf 1013,7 hPa 0,0 l/m 0 min 0 min 0 W/m 4,2 km/h (1 Bft)
18.07.2015 00:54 21,4 C 18,9 C 82 % 0 lf 1013,7 hPa 0,0 l/m 0 min 0 min 0 W/m 4,2 km/h (1 Bft)
18.07.2015 00:56 21,4 C 18,9 C 82 % 0 lf 1013,7 hPa 0,0 l/m 0 min 0 min 0 W/m 2,1 km/h (1 Bft)
18.07.2015 00:58 21,3 C 18,9 C 82 % 0 lf 1013,7 hPa 0,0 l/m 0 min 0 min 0 W/m 2,1 km/h (1 Bft)
18.07.2015 01:00 21,3 C 18,9 C 82 % 0 lf 1013,7 hPa 0,0 l/m 0 min 0 min 0 W/m 2,1 km/h (1 Bft)
18.07.2015 01:02 21,3 C 18,9 C 82 % 0 lf 1013,7 hPa 0,0 l/m 0 min 0 min 0 W/m 2,1 km/h (1 Bft)
18.07.2015 01:04 21,2 C 18,9 C 82 % 0 lf 1013,7 hPa 0,0 l/m 0 min 0 min 0 W/m 2,1 km/h (1 Bft)
18.07.2015 01:06 21,2 C 18,9 C 82 % 0 lf 1013,7 hPa 0,0 l/m 0 min 0 min 0 W/m 2,1 km/h (1 Bft)
18.07.2015 01:08 21,2 C 18,9 C 82 % 0 lf 1013,9 hPa 0,0 l/m 0 min 0 min 0 W/m 4,2 km/h (1 Bft)
18.07.2015 01:10 21,1 C 18,9 C 82 % 0 lf 1014,0 hPa 0,0 l/m 0 min 0 min 0 W/m 4,2 km/h (1 Bft)
18.07.2015 01:12 21,1 C 18,9 C 82 % 0 lf 1014,0 hPa 0,0 l/m 0 min 0 min 0 W/m 4,2 km/h (1 Bft)
18.07.2015 01:14 21,1 C 18,9 C 82 % 0 lf 1014,0 hPa 0,0 l/m 0 min 0 min 0 W/m 6,3 km/h (2 Bft)
18.07.2015 01:16 21,1 C 18,9 C 83 % 0 lf 1014,0 hPa 0,0 l/m 0 min 0 min 0 W/m 8,4 km/h (2 Bft)
18.07.2015 01:18 21,1 C 18,9 C 83 % 0 lf 1014,0 hPa 0,0 l/m 0 min 0 min 0 W/m 6,3 km/h (2 Bft)
18.07.2015 01:20 21,0 C 18,9 C 83 % 0 lf 1014,0 hPa 0,0 l/m 0 min 0 min 0 W/m 6,3 km/h (2 Bft)
18.07.2015 01:22 21,0 C 18,9 C 83 % 0 lf 1014,0 hPa 0,0 l/m 0 min 0 min 0 W/m 8,4 km/h (2 Bft)
18.07.2015 01:24 21,0 C 18,9 C 83 % 0 lf 1014,1 hPa 0,0 l/m 0 min 0 min 0 W/m 8,4 km/h (2 Bft)
18.07.2015 01:26 20,9 C 18,9 C 83 % 0 lf 1014,1 hPa 0,0 l/m 0 min 0 min 0 W/m 8,4 km/h (2 Bft)
18.07.2015 01:28 20,9 C 18,9 C 84 % 0 lf 1014,1 hPa 0,0 l/m 0 min 0 min 0 W/m 4,2 km/h (1 Bft)
18.07.2015 01:30 20,9 C 18,9 C 84 % 0 lf 1014,1 hPa 0,0 l/m 0 min 0 min 0 W/m 8,4 km/h (2 Bft)
18.07.2015 01:32 20,9 C 18,9 C 84 % 0 lf 1014,0 hPa 0,0 l/m 0 min 0 min 0 W/m 8,4 km/h (2 Bft)
18.07.2015 01:34 20,9 C 18,9 C 84 % 0 lf 1014,1 hPa 0,0 l/m 0 min 0 min 0 W/m 8,4 km/h (2 Bft)
18.07.2015 01:36 20,9 C 18,9 C 84 % 0 lf 1014,1 hPa 0,0 l/m 0 min 0 min 0 W/m 6,3 km/h (2 Bft)
18.07.2015 01:38 20,8 C 19,4 C 85 % 0 lf 1014,2 hPa 0,0 l/m 0 min 0 min 0 W/m 10,5 km/h (2 Bft)
18.07.2015 01:40 20,8 C 19,4 C 85 % 0 lf 1014,2 hPa 0,0 l/m 0 min 0 min 0 W/m 12,6 km/h (3 Bft)
18.07.2015 01:42 20,8 C 19,4 C 85 % 0 lf 1014,2 hPa 0,0 l/m 0 min 0 min 0 W/m 14,6 km/h (3 Bft)
18.07.2015 01:44 20,8 C 19,4 C 85 % 0 lf 1014,2 hPa 0,0 l/m 0 min 0 min 0 W/m 12,6 km/h (3 Bft)
18.07.2015 01:46 20,8 C 19,4 C 86 % 0 lf 1014,2 hPa 0,0 l/m 0 min 0 min 0 W/m 12,6 km/h (3 Bft)
18.07.2015 01:48 20,8 C 19,4 C 86 % 0 lf 1014,3 hPa 0,0 l/m 0 min 0 min 0 W/m 14,6 km/h (3 Bft)
18.07.2015 01:50 20,8 C 19,4 C 86 % 0 lf 1014,4 hPa 0,0 l/m 0 min 0 min 0 W/m 20,9 km/h (4 Bft)
18.07.2015 01:52 20,8 C 19,4 C 86 % 0 lf 1014,5 hPa 0,0 l/m 0 min 0 min 0 W/m 16,7 km/h (3 Bft)
18.07.2015 01:54 20,8 C 19,4 C 86 % 0 lf 1014,4 hPa 0,0 l/m 0 min 0 min 0 W/m 25,1 km/h (4 Bft)
18.07.2015 01:56 20,8 C 19,4 C 86 % 0 lf 1014,4 hPa 0,0 l/m 0 min 0 min 0 W/m 25,1 km/h (4 Bft)
18.07.2015 01:58 20,8 C 19,4 C 86 % 0 lf 1014,5 hPa 0,0 l/m 0 min 0 min 0 W/m 20,9 km/h (4 Bft)
18.07.2015 02:00 20,8 C 19,4 C 86 % 0 lf 1014,6 hPa 0,0 l/m 0 min 0 min 0 W/m 20,9 km/h (4 Bft)
18.07.2015 02:02 20,8 C 19,4 C 86 % 0 lf 1014,5 hPa 0,0 l/m 0 min 0 min 0 W/m 23,0 km/h (4 Bft)
18.07.2015 02:04 20,7 C 19,4 C 85 % 0 lf 1014,5 hPa 0,0 l/m 0 min 0 min 0 W/m 20,9 km/h (4 Bft)
18.07.2015 02:06 20,7 C 19,4 C 85 % 0 lf 1014,4 hPa 0,0 l/m 0 min 0 min 0 W/m 16,7 km/h (3 Bft)
18.07.2015 02:08 20,7 C 19,4 C 85 % 0 lf 1014,4 hPa 0,0 l/m 0 min 0 min 0 W/m 16,7 km/h (3 Bft)
18.07.2015 02:10 20,7 C 19,4 C 85 % 0 lf 1014,5 hPa 0,0 l/m 0 min 0 min 0 W/m 14,6 km/h (3 Bft)
18.07.2015 02:12 20,7 C 19,4 C 85 % 0 lf 1014,5 hPa 0,0 l/m 0 min 0 min 0 W/m 16,7 km/h (3 Bft)
18.07.2015 02:14 20,7 C 19,4 C 85 % 0 lf 1014,6 hPa 0,0 l/m 0 min 0 min 0 W/m 12,6 km/h (3 Bft)
18.07.2015 02:16 20,7 C 19,4 C 84 % 0 lf 1014,6 hPa 0,0 l/m 0 min 0 min 0 W/m 16,7 km/h (3 Bft)
18.07.2015 02:18 20,7 C 19,4 C 84 % 0 lf 1014,7 hPa 0,0 l/m 0 min 0 min 0 W/m 18,8 km/h (3 Bft)
18.07.2015 02:20 20,7 C 19,4 C 84 % 0 lf 1014,6 hPa 0,0 l/m 0 min 0 min 0 W/m 14,6 km/h (3 Bft)
18.07.2015 02:22 20,7 C 19,4 C 84 % 0 lf 1014,5 hPa 0,0 l/m 0 min 0 min 0 W/m 18,8 km/h (3 Bft)
18.07.2015 02:24 20,7 C 19,4 C 84 % 0 lf 1014,5 hPa 0,0 l/m 0 min 0 min 0 W/m 20,9 km/h (4 Bft)
18.07.2015 02:26 20,7 C 19,4 C 84 % 0 lf 1014,6 hPa 0,0 l/m 0 min 0 min 0 W/m 14,6 km/h (3 Bft)
18.07.2015 02:28 20,7 C 19,4 C 84 % 0 lf 1014,5 hPa 0,0 l/m 0 min 0 min 0 W/m 10,5 km/h (2 Bft)
18.07.2015 02:30 20,7 C 18,9 C 84 % 0 lf 1014,6 hPa 0,0 l/m 0 min 0 min 0 W/m 8,4 km/h (2 Bft)
18.07.2015 02:32 20,7 C 18,9 C 84 % 0 lf 1014,6 hPa 0,0 l/m 0 min 0 min 0 W/m 14,6 km/h (3 Bft)
18.07.2015 02:34 20,6 C 18,9 C 84 % 0 lf 1014,7 hPa 0,0 l/m 0 min 0 min 0 W/m 20,9 km/h (4 Bft)
18.07.2015 02:36 20,6 C 18,9 C 83 % 0 lf 1014,7 hPa 0,0 l/m 0 min 0 min 0 W/m 20,9 km/h (4 Bft)
18.07.2015 02:38 20,6 C 19,4 C 83 % 0 lf 1014,7 hPa 0,0 l/m 0 min 0 min 0 W/m 25,1 km/h (4 Bft)
18.07.2015 02:40 20,6 C 19,4 C 83 % 0 lf 1014,6 hPa 0,0 l/m 0 min 0 min 0 W/m 12,6 km/h (3 Bft)
18.07.2015 02:42 20,6 C 18,9 C 83 % 0 lf 1014,7 hPa 0,0 l/m 0 min 0 min 0 W/m 14,6 km/h (3 Bft)
18.07.2015 02:44 20,6 C 18,9 C 83 % 0 lf 1014,7 hPa 0,0 l/m 0 min 0 min 0 W/m 18,8 km/h (3 Bft)
18.07.2015 02:46 20,5 C 18,9 C 83 % 0 lf 1014,8 hPa 0,0 l/m 0 min 0 min 0 W/m 18,8 km/h (3 Bft)
18.07.2015 02:48 20,5 C 18,9 C 83 % 0 lf 1014,6 hPa 0,0 l/m 0 min 0 min 0 W/m 18,8 km/h (3 Bft)
18.07.2015 02:50 20,5 C 18,9 C 83 % 0 lf 1014,6 hPa 0,0 l/m 0 min 0 min 0 W/m 16,7 km/h (3 Bft)
18.07.2015 02:52 20,5 C 18,9 C 83 % 0 lf 1014,6 hPa 0,0 l/m 0 min 0 min 0 W/m 10,5 km/h (2 Bft)
18.07.2015 02:54 20,5 C 18,9 C 82 % 0 lf 1014,6 hPa 0,0 l/m 0 min 0 min 0 W/m 18,8 km/h (3 Bft)
18.07.2015 02:56 20,4 C 18,9 C 82 % 0 lf 1014,8 hPa 0,0 l/m 0 min 0 min 0 W/m 14,6 km/h (3 Bft)
18.07.2015 02:58 20,4 C 18,9 C 82 % 0 lf 1014,8 hPa 0,0 l/m 0 min 0 min 0 W/m 16,7 km/h (3 Bft)
18.07.2015 03:00 20,4 C 18,9 C 82 % 0 lf 1014,8 hPa 0,0 l/m 0 min 0 min 0 W/m 14,6 km/h (3 Bft)
18.07.2015 03:02 20,4 C 18,9 C 83 % 0 lf 1014,8 hPa 0,0 l/m 0 min 0 min 0 W/m 10,5 km/h (2 Bft)
18.07.2015 03:04 20,4 C 18,9 C 83 % 0 lf 1014,9 hPa 0,0 l/m 0 min 0 min 0 W/m 16,7 km/h (3 Bft)
18.07.2015 03:06 20,4 C 18,9 C 83 % 0 lf 1014,8 hPa 0,0 l/m 0 min 0 min 0 W/m 18,8 km/h (3 Bft)
18.07.2015 03:08 20,4 C 18,9 C 83 % 0 lf 1014,8 hPa 0,0 l/m 0 min 0 min 0 W/m 14,6 km/h (3 Bft)
18.07.2015 03:10 20,4 C 18,9 C 83 % 0 lf 1014,7 hPa 0,0 l/m 0 min 0 min 0 W/m 14,6 km/h (3 Bft)
18.07.2015 03:12 20,4 C 18,9 C 82 % 0 lf 1014,8 hPa 0,0 l/m 0 min 0 min 0 W/m 10,5 km/h (2 Bft)
18.07.2015 03:14 20,4 C 18,9 C 82 % 0 lf 1015,0 hPa 0,0 l/m 0 min 0 min 0 W/m 14,6 km/h (3 Bft)
18.07.2015 03:16 20,4 C 18,9 C 82 % 0 lf 1014,9 hPa 0,0 l/m 0 min 0 min 0 W/m 18,8 km/h (3 Bft)
18.07.2015 03:18 20,4 C 18,3 C 83 % 15 lf 1014,9 hPa 0,0 l/m 0 min 2 min 0 W/m 12,6 km/h (3 Bft)
18.07.2015 03:20 20,4 C 18,3 C 83 % 15 lf 1015,0 hPa 0,0 l/m 0 min 2 min 0 W/m 12,6 km/h (3 Bft)
18.07.2015 03:22 20,4 C 17,8 C 83 % 15 lf 1014,9 hPa 0,0 l/m 0 min 2 min 0 W/m 12,6 km/h (3 Bft)
18.07.2015 03:24 20,4 C 17,8 C 84 % 15 lf 1014,8 hPa 0,0 l/m 0 min 0 min 0 W/m 16,7 km/h (3 Bft)
18.07.2015 03:26 20,3 C 17,8 C 84 % 15 lf 1014,7 hPa 0,0 l/m 0 min 0 min 0 W/m 14,6 km/h (3 Bft)
18.07.2015 03:28 20,3 C 17,8 C 84 % 15 lf 1014,8 hPa 0,0 l/m 0 min 0 min 0 W/m 8,4 km/h (2 Bft)
18.07.2015 03:30 20,3 C 17,8 C 84 % 15 lf 1014,9 hPa 0,0 l/m 0 min 0 min 0 W/m 14,6 km/h (3 Bft)
18.07.2015 03:32 20,3 C 17,8 C 84 % 15 lf 1014,9 hPa 0,0 l/m 0 min 0 min 0 W/m 6,3 km/h (2 Bft)
18.07.2015 03:34 20,3 C 17,8 C 85 % 15 lf 1014,9 hPa 0,0 l/m 0 min 0 min 0 W/m 8,4 km/h (2 Bft)
18.07.2015 03:36 20,2 C 18,3 C 85 % 15 lf 1014,9 hPa 0,0 l/m 0 min 0 min 0 W/m 10,5 km/h (2 Bft)
18.07.2015 03:38 20,2 C 17,8 C 85 % 15 lf 1014,9 hPa 0,0 l/m 0 min 0 min 0 W/m 10,5 km/h (2 Bft)
18.07.2015 03:40 20,2 C 18,3 C 85 % 15 lf 1014,9 hPa 0,0 l/m 0 min 0 min 0 W/m 12,6 km/h (3 Bft)
18.07.2015 03:42 20,2 C 18,3 C 85 % 15 lf 1015,0 hPa 0,0 l/m 0 min 0 min 0 W/m 14,6 km/h (3 Bft)
18.07.2015 03:44 20,1 C 18,3 C 85 % 15 lf 1015,0 hPa 0,0 l/m 0 min 0 min 0 W/m 10,5 km/h (2 Bft)
18.07.2015 03:46 20,1 C 18,3 C 85 % 14 lf 1015,1 hPa 0,0 l/m 0 min 0 min 0 W/m 12,6 km/h (3 Bft)
18.07.2015 03:48 20,1 C 18,3 C 85 % 12 lf 1015,1 hPa 0,0 l/m 0 min 0 min 0 W/m 8,4 km/h (2 Bft)
18.07.2015 03:50 20,1 C 18,3 C 85 % 4 lf 1015,1 hPa 0,0 l/m 0 min 0 min 0 W/m 4,2 km/h (1 Bft)
18.07.2015 03:52 20,0 C 18,3 C 86 % 2 lf 1015,2 hPa 0,0 l/m 0 min 0 min 0 W/m 6,3 km/h (2 Bft)
18.07.2015 03:54 19,9 C 18,3 C 86 % 4 lf 1015,1 hPa 0,0 l/m 0 min 0 min 0 W/m 10,5 km/h (2 Bft)
18.07.2015 03:56 19,9 C 17,8 C 86 % 9 lf 1015,2 hPa 0,0 l/m 0 min 2 min 0 W/m 16,7 km/h (3 Bft)
18.07.2015 03:58 19,9 C 17,8 C 86 % 15 lf 1015,1 hPa 0,0 l/m 0 min 2 min 0 W/m 12,6 km/h (3 Bft)
18.07.2015 04:00 19,9 C 17,2 C 87 % 15 lf 1015,0 hPa 0,0 l/m 0 min 2 min 0 W/m 6,3 km/h (2 Bft)
18.07.2015 04:02 19,9 C 17,2 C 87 % 15 lf 1014,9 hPa 0,0 l/m 0 min 2 min 0 W/m 8,4 km/h (2 Bft)
18.07.2015 04:04 19,8 C 17,2 C 87 % 15 lf 1015,0 hPa 0,0 l/m 0 min 2 min 0 W/m 8,4 km/h (2 Bft)
18.07.2015 04:06 19,8 C 17,2 C 87 % 15 lf 1015,1 hPa 0,0 l/m 0 min 2 min 0 W/m 4,2 km/h (1 Bft)
18.07.2015 04:08 19,8 C 17,2 C 87 % 15 lf 1015,1 hPa 0,0 l/m 0 min 0 min 0 W/m 6,3 km/h (2 Bft)
18.07.2015 04:10 19,8 C 17,2 C 87 % 15 lf 1015,1 hPa 0,0 l/m 0 min 0 min 0 W/m 8,4 km/h (2 Bft)
18.07.2015 04:12 19,8 C 17,2 C 87 % 15 lf 1015,1 hPa 0,0 l/m 0 min 0 min 0 W/m 6,3 km/h (2 Bft)
18.07.2015 04:14 19,7 C 17,2 C 87 % 15 lf 1015,2 hPa 0,0 l/m 0 min 0 min 0 W/m 6,3 km/h (2 Bft)
18.07.2015 04:16 19,7 C 17,2 C 88 % 15 lf 1015,2 hPa 0,0 l/m 0 min 0 min 0 W/m 8,4 km/h (2 Bft)
18.07.2015 04:18 19,7 C 17,2 C 88 % 15 lf 1015,2 hPa 0,0 l/m 0 min 0 min 0 W/m 6,3 km/h (2 Bft)
18.07.2015 04:20 19,7 C 17,2 C 88 % 15 lf 1015,1 hPa 0,0 l/m 0 min 0 min 0 W/m 10,5 km/h (2 Bft)
18.07.2015 04:22 19,7 C 17,2 C 88 % 15 lf 1015,1 hPa 0,0 l/m 0 min 0 min 0 W/m 10,5 km/h (2 Bft)
18.07.2015 04:24 19,6 C 17,2 C 88 % 15 lf 1015,2 hPa 0,0 l/m 0 min 0 min 0 W/m 6,3 km/h (2 Bft)
18.07.2015 04:26 19,6 C 17,2 C 88 % 15 lf 1015,1 hPa 0,0 l/m 0 min 0 min 0 W/m 8,4 km/h (2 Bft)
18.07.2015 04:28 19,6 C 17,2 C 88 % 15 lf 1015,2 hPa 0,0 l/m 0 min 0 min 0 W/m 10,5 km/h (2 Bft)
18.07.2015 04:30 19,6 C 17,2 C 89 % 15 lf 1015,2 hPa 0,0 l/m 0 min 0 min 0 W/m 8,4 km/h (2 Bft)
18.07.2015 04:32 19,5 C 17,2 C 89 % 15 lf 1015,2 hPa 0,0 l/m 0 min 0 min 0 W/m 10,5 km/h (2 Bft)
18.07.2015 04:34 19,5 C 17,2 C 89 % 15 lf 1015,1 hPa 0,0 l/m 0 min 0 min 0 W/m 6,3 km/h (2 Bft)
18.07.2015 04:36 19,4 C 17,2 C 89 % 15 lf 1015,2 hPa 0,0 l/m 0 min 0 min 0 W/m 10,5 km/h (2 Bft)
18.07.2015 04:38 19,4 C 17,2 C 89 % 15 lf 1015,1 hPa 0,0 l/m 0 min 0 min 0 W/m 8,4 km/h (2 Bft)
18.07.2015 04:40 19,4 C 17,2 C 89 % 15 lf 1015,1 hPa 0,0 l/m 0 min 0 min 0 W/m 6,3 km/h (2 Bft)
18.07.2015 04:42 19,4 C 17,2 C 89 % 15 lf 1015,1 hPa 0,0 l/m 0 min 0 min 0 W/m 6,3 km/h (2 Bft)
18.07.2015 04:44 19,3 C 17,2 C 89 % 15 lf 1015,1 hPa 0,0 l/m 0 min 0 min 0 W/m 6,3 km/h (2 Bft)
18.07.2015 04:46 19,3 C 17,2 C 90 % 15 lf 1015,2 hPa 0,0 l/m 0 min 0 min 0 W/m 6,3 km/h (2 Bft)
18.07.2015 04:48 19,3 C 17,2 C 90 % 15 lf 1015,2 hPa 0,0 l/m 0 min 0 min 0 W/m 6,3 km/h (2 Bft)
18.07.2015 04:50 19,3 C 17,2 C 90 % 15 lf 1015,3 hPa 0,0 l/m 0 min 0 min 0 W/m 4,2 km/h (1 Bft)
18.07.2015 04:52 19,2 C 16,7 C 90 % 15 lf 1015,3 hPa 0,0 l/m 0 min 0 min 0 W/m 6,3 km/h (2 Bft)
18.07.2015 04:54 19,2 C 16,7 C 90 % 15 lf 1015,3 hPa 0,0 l/m 0 min 0 min 0 W/m 10,5 km/h (2 Bft)
18.07.2015 04:56 19,2 C 16,7 C 90 % 15 lf 1015,3 hPa 0,0 l/m 0 min 0 min 0 W/m 6,3 km/h (2 Bft)
18.07.2015 04:58 19,2 C 17,2 C 90 % 15 lf 1015,4 hPa 0,0 l/m 0 min 0 min 0 W/m 6,3 km/h (2 Bft)
18.07.2015 05:00 19,1 C 17,2 C 90 % 15 lf 1015,5 hPa 0,0 l/m 0 min 0 min 0 W/m 8,4 km/h (2 Bft)
18.07.2015 05:02 19,1 C 17,2 C 90 % 15 lf 1015,4 hPa 0,0 l/m 0 min 0 min 0 W/m 8,4 km/h (2 Bft)
18.07.2015 05:04 19,1 C 17,2 C 90 % 15 lf 1015,4 hPa 0,0 l/m 0 min 0 min 0 W/m 8,4 km/h (2 Bft)
18.07.2015 05:06 19,0 C 17,2 C 90 % 15 lf 1015,4 hPa 0,0 l/m 0 min 0 min 0 W/m 8,4 km/h (2 Bft)
18.07.2015 05:08 19,0 C 17,2 C 90 % 15 lf 1015,6 hPa 0,0 l/m 0 min 0 min 0 W/m 6,3 km/h (2 Bft)
18.07.2015 05:10 18,9 C 17,2 C 90 % 15 lf 1015,6 hPa 0,0 l/m 0 min 0 min 0 W/m 4,2 km/h (1 Bft)
18.07.2015 05:12 18,9 C 17,2 C 90 % 15 lf 1015,6 hPa 0,0 l/m 0 min 0 min 0 W/m 6,3 km/h (2 Bft)
18.07.2015 05:14 18,9 C 17,2 C 91 % 15 lf 1015,6 hPa 0,0 l/m 0 min 0 min 0 W/m 8,4 km/h (2 Bft)
18.07.2015 05:16 18,9 C 17,2 C 91 % 15 lf 1015,7 hPa 0,0 l/m 0 min 0 min 0 W/m 6,3 km/h (2 Bft)
18.07.2015 05:18 18,9 C 17,2 C 91 % 15 lf 1015,8 hPa 0,0 l/m 0 min 0 min 0 W/m 8,4 km/h (2 Bft)
18.07.2015 05:20 18,9 C 17,2 C 91 % 14 lf 1015,8 hPa 0,0 l/m 0 min 0 min 0 W/m 16,7 km/h (3 Bft)
18.07.2015 05:22 18,8 C 17,2 C 91 % 12 lf 1015,8 hPa 0,0 l/m 0 min 0 min 0 W/m 20,9 km/h (4 Bft)
18.07.2015 05:24 18,8 C 17,2 C 91 % 4 lf 1015,8 hPa 0,0 l/m 0 min 0 min 0 W/m 16,7 km/h (3 Bft)
18.07.2015 05:26 18,8 C 17,2 C 91 % 2 lf 1015,8 hPa 0,0 l/m 0 min 0 min 0 W/m 18,8 km/h (3 Bft)
18.07.2015 05:28 18,7 C 17,2 C 91 % 1 lf 1015,9 hPa 0,0 l/m 0 min 0 min 0 W/m 10,5 km/h (2 Bft)
18.07.2015 05:30 18,7 C 17,2 C 91 % 0 lf 1015,9 hPa 0,0 l/m 0 min 0 min 0 W/m 18,8 km/h (3 Bft)
18.07.2015 05:32 18,6 C 17,2 C 90 % 0 lf 1015,8 hPa 0,0 l/m 0 min 0 min 0 W/m 18,8 km/h (3 Bft)
18.07.2015 05:34 18,5 C 17,2 C 90 % 0 lf 1015,9 hPa 0,0 l/m 0 min 0 min 0 W/m 14,6 km/h (3 Bft)
18.07.2015 05:36 18,5 C 17,2 C 90 % 0 lf 1015,9 hPa 0,0 l/m 0 min 0 min 0 W/m 10,5 km/h (2 Bft)
18.07.2015 05:38 18,4 C 17,2 C 90 % 0 lf 1015,8 hPa 0,0 l/m 0 min 0 min 0 W/m 12,6 km/h (3 Bft)
18.07.2015 05:40 18,4 C 17,2 C 90 % 0 lf 1015,8 hPa 0,0 l/m 0 min 0 min 0 W/m 14,6 km/h (3 Bft)
18.07.2015 05:42 18,4 C 17,2 C 90 % 0 lf 1015,8 hPa 0,0 l/m 0 min 0 min 0 W/m 10,5 km/h (2 Bft)
18.07.2015 05:44 18,3 C 17,2 C 90 % 0 lf 1015,9 hPa 0,0 l/m 0 min 0 min 4 W/m 18,8 km/h (3 Bft)
18.07.2015 05:46 18,3 C 17,2 C 90 % 0 lf 1015,9 hPa 0,0 l/m 0 min 0 min 5 W/m 10,5 km/h (2 Bft)
18.07.2015 05:48 18,3 C 17,2 C 89 % 0 lf 1015,9 hPa 0,0 l/m 0 min 0 min 5 W/m 12,6 km/h (3 Bft)
18.07.2015 05:50 18,2 C 17,2 C 89 % 0 lf 1015,9 hPa 0,0 l/m 0 min 0 min 6 W/m 12,6 km/h (3 Bft)
18.07.2015 05:52 18,2 C 17,2 C 89 % 0 lf 1015,9 hPa 0,0 l/m 0 min 0 min 7 W/m 8,4 km/h (2 Bft)
18.07.2015 05:54 18,2 C 16,7 C 89 % 0 lf 1015,9 hPa 0,0 l/m 0 min 0 min 9 W/m 10,5 km/h (2 Bft)
18.07.2015 05:56 18,2 C 16,7 C 89 % 0 lf 1015,9 hPa 0,0 l/m 0 min 0 min 10 W/m 18,8 km/h (3 Bft)
18.07.2015 05:58 18,2 C 16,7 C 89 % 0 lf 1015,9 hPa 0,0 l/m 0 min 0 min 12 W/m 12,6 km/h (3 Bft)
18.07.2015 06:00 18,1 C 16,7 C 88 % 0 lf 1015,9 hPa 0,0 l/m 0 min 0 min 13 W/m 10,5 km/h (2 Bft)
18.07.2015 06:02 18,1 C 16,7 C 88 % 0 lf 1016,0 hPa 0,0 l/m 0 min 0 min 16 W/m 12,6 km/h (3 Bft)
18.07.2015 06:05 18,1 C 16,7 C 88 % 0 lf 1016,1 hPa 0,0 l/m 0 min 0 min 18 W/m 10,5 km/h (2 Bft)
18.07.2015 06:08 18,1 C 16,7 C 88 % 0 lf 1016,0 hPa 0,0 l/m 0 min 0 min 18 W/m 12,6 km/h (3 Bft)
18.07.2015 06:10 18,1 C 16,7 C 88 % 0 lf 1015,9 hPa 0,0 l/m 0 min 0 min 22 W/m 8,4 km/h (2 Bft)
18.07.2015 06:12 18,1 C 16,7 C 88 % 0 lf 1015,9 hPa 0,0 l/m 0 min 0 min 26 W/m 8,4 km/h (2 Bft)
18.07.2015 06:14 18,0 C 16,7 C 88 % 0 lf 1015,8 hPa 0,0 l/m 0 min 0 min 28 W/m 12,6 km/h (3 Bft)
18.07.2015 06:16 18,0 C 16,7 C 88 % 0 lf 1016,0 hPa 0,0 l/m 0 min 0 min 30 W/m 14,6 km/h (3 Bft)
18.07.2015 06:18 18,0 C 16,7 C 88 % 0 lf 1015,9 hPa 0,0 l/m 0 min 0 min 28 W/m 12,6 km/h (3 Bft)
18.07.2015 06:20 17,9 C 16,7 C 88 % 0 lf 1016,1 hPa 0,0 l/m 0 min 0 min 27 W/m 8,4 km/h (2 Bft)
18.07.2015 06:22 17,9 C 16,7 C 88 % 0 lf 1016,0 hPa 0,0 l/m 0 min 0 min 28 W/m 2,1 km/h (1 Bft)
18.07.2015 06:24 17,9 C 16,1 C 88 % 0 lf 1015,9 hPa 0,0 l/m 0 min 0 min 32 W/m 10,5 km/h (2 Bft)
18.07.2015 06:26 17,9 C 16,1 C 88 % 0 lf 1015,8 hPa 0,0 l/m 0 min 0 min 29 W/m 8,4 km/h (2 Bft)
18.07.2015 06:28 17,8 C 16,1 C 88 % 0 lf 1015,7 hPa 0,0 l/m 0 min 0 min 30 W/m 8,4 km/h (2 Bft)
18.07.2015 06:30 17,8 C 16,1 C 88 % 0 lf 1015,8 hPa 0,0 l/m 0 min 0 min 33 W/m 8,4 km/h (2 Bft)
18.07.2015 06:32 17,8 C 16,1 C 88 % 0 lf 1015,8 hPa 0,0 l/m 0 min 0 min 40 W/m 6,3 km/h (2 Bft)
18.07.2015 06:34 17,8 C 16,1 C 88 % 0 lf 1015,8 hPa 0,0 l/m 0 min 0 min 38 W/m 10,5 km/h (2 Bft)
18.07.2015 06:36 17,7 C 16,1 C 88 % 0 lf 1015,9 hPa 0,0 l/m 0 min 0 min 46 W/m 6,3 km/h (2 Bft)
18.07.2015 06:38 17,7 C 16,1 C 88 % 0 lf 1015,9 hPa 0,0 l/m 2 min 0 min 73 W/m 6,3 km/h (2 Bft)
18.07.2015 06:40 17,7 C 16,1 C 88 % 0 lf 1016,0 hPa 0,0 l/m 0 min 0 min 53 W/m 8,4 km/h (2 Bft)
18.07.2015 06:42 17,7 C 16,1 C 88 % 0 lf 1016,1 hPa 0,0 l/m 0 min 0 min 37 W/m 8,4 km/h (2 Bft)
18.07.2015 06:44 17,7 C 16,1 C 88 % 0 lf 1016,1 hPa 0,0 l/m 0 min 0 min 41 W/m 8,4 km/h (2 Bft)
18.07.2015 06:46 17,7 C 16,1 C 88 % 0 lf 1016,0 hPa 0,0 l/m 0 min 0 min 46 W/m 6,3 km/h (2 Bft)
18.07.2015 06:48 17,6 C 16,1 C 88 % 0 lf 1016,0 hPa 0,0 l/m 2 min 0 min 80 W/m 4,2 km/h (1 Bft)
18.07.2015 06:50 17,6 C 16,1 C 88 % 0 lf 1016,0 hPa 0,0 l/m 2 min 0 min 88 W/m 8,4 km/h (2 Bft)
18.07.2015 06:52 17,6 C 16,1 C 89 % 0 lf 1016,1 hPa 0,0 l/m 2 min 0 min 79 W/m 6,3 km/h (2 Bft)
18.07.2015 06:54 17,6 C 16,1 C 89 % 0 lf 1016,1 hPa 0,0 l/m 2 min 0 min 106 W/m 6,3 km/h (2 Bft)
18.07.2015 06:56 17,6 C 16,1 C 89 % 0 lf 1016,1 hPa 0,0 l/m 2 min 0 min 126 W/m 4,2 km/h (1 Bft)
18.07.2015 06:58 17,5 C 16,1 C 89 % 0 lf 1016,1 hPa 0,0 l/m 2 min 0 min 131 W/m 10,5 km/h (2 Bft)
18.07.2015 07:00 17,5 C 16,7 C 89 % 0 lf 1016,2 hPa 0,0 l/m 2 min 0 min 179 W/m 10,5 km/h (2 Bft)
18.07.2015 07:02 17,5 C 16,7 C 89 % 0 lf 1016,2 hPa 0,0 l/m 2 min 0 min 198 W/m 10,5 km/h (2 Bft)
18.07.2015 07:04 17,5 C 16,7 C 90 % 0 lf 1016,2 hPa 0,0 l/m 2 min 0 min 204 W/m 12,6 km/h (3 Bft)
18.07.2015 07:06 17,5 C 16,7 C 90 % 0 lf 1016,2 hPa 0,0 l/m 2 min 0 min 175 W/m 14,6 km/h (3 Bft)
18.07.2015 07:08 17,5 C 16,7 C 90 % 0 lf 1016,3 hPa 0,0 l/m 2 min 0 min 175 W/m 16,7 km/h (3 Bft)
18.07.2015 07:10 17,5 C 16,7 C 90 % 0 lf 1016,3 hPa 0,0 l/m 2 min 0 min 113 W/m 14,6 km/h (3 Bft)
18.07.2015 07:12 17,5 C 16,7 C 90 % 0 lf 1016,3 hPa 0,0 l/m 2 min 0 min 107 W/m 14,6 km/h (3 Bft)
18.07.2015 07:14 17,5 C 17,2 C 90 % 0 lf 1016,3 hPa 0,0 l/m 2 min 0 min 118 W/m 12,6 km/h (3 Bft)
18.07.2015 07:16 17,5 C 17,2 C 89 % 0 lf 1016,3 hPa 0,0 l/m 2 min 0 min 132 W/m 18,8 km/h (3 Bft)
18.07.2015 07:18 17,5 C 17,2 C 89 % 0 lf 1016,3 hPa 0,0 l/m 2 min 0 min 119 W/m 14,6 km/h (3 Bft)
18.07.2015 07:20 17,5 C 17,2 C 89 % 0 lf 1016,3 hPa 0,0 l/m 2 min 0 min 120 W/m 14,6 km/h (3 Bft)
18.07.2015 07:22 17,5 C 17,2 C 88 % 0 lf 1016,4 hPa 0,0 l/m 2 min 0 min 113 W/m 16,7 km/h (3 Bft)
18.07.2015 07:24 17,5 C 16,7 C 88 % 0 lf 1016,4 hPa 0,0 l/m 0 min 0 min 105 W/m 14,6 km/h (3 Bft)
18.07.2015 07:26 17,5 C 16,7 C 87 % 0 lf 1016,4 hPa 0,0 l/m 0 min 0 min 105 W/m 16,7 km/h (3 Bft)
18.07.2015 07:28 17,5 C 16,7 C 87 % 0 lf 1016,4 hPa 0,0 l/m 0 min 0 min 114 W/m 18,8 km/h (3 Bft)
18.07.2015 07:30 17,5 C 16,7 C 86 % 0 lf 1016,5 hPa 0,0 l/m 2 min 0 min 123 W/m 16,7 km/h (3 Bft)
18.07.2015 07:32 17,5 C 16,7 C 86 % 0 lf 1016,5 hPa 0,0 l/m 2 min 0 min 133 W/m 18,8 km/h (3 Bft)
18.07.2015 07:34 17,6 C 16,7 C 86 % 0 lf 1016,6 hPa 0,0 l/m 2 min 0 min 130 W/m 23,0 km/h (4 Bft)
18.07.2015 07:36 17,6 C 16,7 C 86 % 0 lf 1016,5 hPa 0,0 l/m 2 min 0 min 142 W/m 16,7 km/h (3 Bft)
18.07.2015 07:38 17,6 C 16,7 C 86 % 0 lf 1016,6 hPa 0,0 l/m 2 min 0 min 145 W/m 20,9 km/h (4 Bft)
18.07.2015 07:40 17,6 C 16,7 C 86 % 0 lf 1016,6 hPa 0,0 l/m 2 min 0 min 146 W/m 14,6 km/h (3 Bft)
18.07.2015 07:42 17,6 C 16,7 C 86 % 0 lf 1016,6 hPa 0,0 l/m 2 min 0 min 148 W/m 20,9 km/h (4 Bft)
18.07.2015 07:44 17,6 C 16,7 C 86 % 0 lf 1016,6 hPa 0,0 l/m 2 min 0 min 143 W/m 18,8 km/h (3 Bft)
18.07.2015 07:46 17,6 C 16,7 C 85 % 0 lf 1016,6 hPa 0,0 l/m 2 min 0 min 145 W/m 16,7 km/h (3 Bft)
18.07.2015 07:48 17,6 C 16,7 C 85 % 0 lf 1016,6 hPa 0,0 l/m 2 min 0 min 148 W/m 12,6 km/h (3 Bft)
18.07.2015 07:50 17,6 C 16,7 C 85 % 0 lf 1016,6 hPa 0,0 l/m 2 min 0 min 157 W/m 20,9 km/h (4 Bft)
18.07.2015 07:52 17,6 C 16,7 C 85 % 0 lf 1016,5 hPa 0,0 l/m 2 min 0 min 168 W/m 14,6 km/h (3 Bft)
18.07.2015 07:54 17,6 C 16,7 C 85 % 0 lf 1016,5 hPa 0,0 l/m 2 min 0 min 175 W/m 16,7 km/h (3 Bft)
18.07.2015 07:56 17,7 C 16,7 C 85 % 0 lf 1016,7 hPa 0,0 l/m 2 min 0 min 175 W/m 18,8 km/h (3 Bft)
18.07.2015 07:58 17,7 C 16,7 C 84 % 0 lf 1016,6 hPa 0,0 l/m 2 min 0 min 185 W/m 14,6 km/h (3 Bft)
18.07.2015 08:00 17,7 C 16,7 C 84 % 0 lf 1016,6 hPa 0,0 l/m 2 min 0 min 236 W/m 20,9 km/h (4 Bft)
18.07.2015 08:02 17,7 C 16,7 C 84 % 0 lf 1016,6 hPa 0,0 l/m 2 min 0 min 194 W/m 18,8 km/h (3 Bft)
18.07.2015 08:04 17,7 C 16,7 C 84 % 0 lf 1016,6 hPa 0,0 l/m 2 min 0 min 177 W/m 16,7 km/h (3 Bft)
18.07.2015 08:06 17,7 C 17,2 C 84 % 0 lf 1016,6 hPa 0,0 l/m 2 min 0 min 204 W/m 8,4 km/h (2 Bft)
18.07.2015 08:08 17,7 C 17,2 C 84 % 0 lf 1016,7 hPa 0,0 l/m 2 min 0 min 179 W/m 12,6 km/h (3 Bft)
18.07.2015 08:10 17,7 C 17,2 C 84 % 0 lf 1016,7 hPa 0,0 l/m 2 min 0 min 193 W/m 16,7 km/h (3 Bft)
18.07.2015 08:12 17,7 C 17,2 C 84 % 0 lf 1016,6 hPa 0,0 l/m 2 min 0 min 196 W/m 8,4 km/h (2 Bft)
18.07.2015 08:14 17,7 C 17,2 C 84 % 0 lf 1016,4 hPa 0,0 l/m 2 min 0 min 181 W/m 8,4 km/h (2 Bft)
18.07.2015 08:16 17,7 C 17,2 C 84 % 0 lf 1016,4 hPa 0,0 l/m 2 min 0 min 195 W/m 8,4 km/h (2 Bft)
18.07.2015 08:18 17,8 C 17,2 C 84 % 0 lf 1016,5 hPa 0,0 l/m 2 min 0 min 222 W/m 8,4 km/h (2 Bft)
18.07.2015 08:20 17,8 C 17,2 C 84 % 0 lf 1016,4 hPa 0,0 l/m 2 min 0 min 288 W/m 6,3 km/h (2 Bft)
18.07.2015 08:22 17,8 C 17,2 C 84 % 0 lf 1016,6 hPa 0,0 l/m 2 min 0 min 290 W/m 10,5 km/h (2 Bft)
18.07.2015 08:24 17,8 C 17,8 C 84 % 0 lf 1016,4 hPa 0,0 l/m 2 min 0 min 332 W/m 6,3 km/h (2 Bft)
18.07.2015 08:26 17,9 C 17,8 C 84 % 0 lf 1016,4 hPa 0,0 l/m 2 min 0 min 258 W/m 14,6 km/h (3 Bft)
18.07.2015 08:28 17,9 C 17,2 C 84 % 0 lf 1016,4 hPa 0,0 l/m 2 min 0 min 223 W/m 14,6 km/h (3 Bft)
18.07.2015 08:30 17,9 C 17,2 C 83 % 0 lf 1016,3 hPa 0,0 l/m 0 min 0 min 169 W/m 16,7 km/h (3 Bft)
18.07.2015 08:32 17,9 C 17,2 C 83 % 0 lf 1016,3 hPa 0,0 l/m 0 min 0 min 155 W/m 8,4 km/h (2 Bft)
18.07.2015 08:34 17,9 C 17,2 C 83 % 0 lf 1016,2 hPa 0,0 l/m 0 min 0 min 150 W/m 18,8 km/h (3 Bft)
18.07.2015 08:36 17,9 C 16,7 C 82 % 0 lf 1016,2 hPa 0,0 l/m 0 min 0 min 161 W/m 16,7 km/h (3 Bft)
18.07.2015 08:38 17,9 C 16,7 C 82 % 0 lf 1016,3 hPa 0,0 l/m 0 min 0 min 180 W/m 12,6 km/h (3 Bft)
18.07.2015 08:40 17,9 C 16,7 C 82 % 0 lf 1016,3 hPa 0,0 l/m 0 min 0 min 185 W/m 12,6 km/h (3 Bft)
18.07.2015 08:42 17,9 C 16,7 C 82 % 0 lf 1016,2 hPa 0,0 l/m 2 min 0 min 222 W/m 14,6 km/h (3 Bft)
18.07.2015 08:44 17,9 C 16,7 C 82 % 0 lf 1016,2 hPa 0,0 l/m 2 min 0 min 234 W/m 14,6 km/h (3 Bft)
18.07.2015 08:46 17,9 C 17,2 C 83 % 0 lf 1016,3 hPa 0,0 l/m 2 min 0 min 254 W/m 8,4 km/h (2 Bft)
18.07.2015 08:48 17,9 C 17,2 C 83 % 0 lf 1016,3 hPa 0,0 l/m 2 min 0 min 243 W/m 8,4 km/h (2 Bft)
18.07.2015 08:50 18,0 C 17,2 C 83 % 0 lf 1016,4 hPa 0,0 l/m 2 min 0 min 307 W/m 18,8 km/h (3 Bft)
18.07.2015 08:52 18,0 C 17,2 C 83 % 0 lf 1016,5 hPa 0,0 l/m 2 min 0 min 311 W/m 14,6 km/h (3 Bft)
18.07.2015 08:54 18,0 C 17,2 C 82 % 0 lf 1016,4 hPa 0,0 l/m 2 min 0 min 326 W/m 18,8 km/h (3 Bft)
18.07.2015 08:56 18,1 C 17,2 C 83 % 0 lf 1016,4 hPa 0,0 l/m 2 min 0 min 405 W/m 12,6 km/h (3 Bft)
18.07.2015 08:58 18,1 C 17,2 C 82 % 0 lf 1016,4 hPa 0,0 l/m 2 min 0 min 416 W/m 14,6 km/h (3 Bft)
18.07.2015 09:00 18,2 C 17,8 C 82 % 0 lf 1016,3 hPa 0,0 l/m 2 min 0 min 449 W/m 12,6 km/h (3 Bft)
18.07.2015 09:02 18,3 C 17,8 C 82 % 0 lf 1016,3 hPa 0,0 l/m 2 min 0 min 447 W/m 10,5 km/h (2 Bft)
18.07.2015 09:04 18,3 C 17,8 C 82 % 0 lf 1016,4 hPa 0,0 l/m 2 min 0 min 416 W/m 14,6 km/h (3 Bft)
18.07.2015 09:06 18,4 C 17,8 C 82 % 0 lf 1016,4 hPa 0,0 l/m 2 min 0 min 366 W/m 18,8 km/h (3 Bft)
18.07.2015 09:08 18,4 C 17,8 C 81 % 0 lf 1016,4 hPa 0,0 l/m 2 min 0 min 341 W/m 18,8 km/h (3 Bft)
18.07.2015 09:10 18,6 C 17,8 C 81 % 0 lf 1016,6 hPa 0,0 l/m 2 min 0 min 296 W/m 16,7 km/h (3 Bft)
18.07.2015 09:12 18,6 C 17,8 C 81 % 0 lf 1016,5 hPa 0,0 l/m 2 min 0 min 418 W/m 16,7 km/h (3 Bft)
18.07.2015 09:14 18,6 C 17,8 C 80 % 0 lf 1016,5 hPa 0,0 l/m 2 min 0 min 386 W/m 18,8 km/h (3 Bft)
18.07.2015 09:16 18,7 C 17,8 C 79 % 0 lf 1016,7 hPa 0,0 l/m 2 min 0 min 365 W/m 16,7 km/h (3 Bft)
18.07.2015 09:18 18,7 C 17,8 C 79 % 0 lf 1016,6 hPa 0,0 l/m 2 min 0 min 368 W/m 20,9 km/h (4 Bft)
18.07.2015 09:20 18,8 C 17,8 C 79 % 0 lf 1016,7 hPa 0,0 l/m 2 min 0 min 401 W/m 20,9 km/h (4 Bft)
18.07.2015 09:22 18,8 C 17,8 C 79 % 0 lf 1016,7 hPa 0,0 l/m 2 min 0 min 401 W/m 18,8 km/h (3 Bft)
18.07.2015 09:24 18,9 C 17,8 C 78 % 0 lf 1016,8 hPa 0,0 l/m 2 min 0 min 401 W/m 18,8 km/h (3 Bft)
18.07.2015 09:26 18,9 C 17,8 C 78 % 0 lf 1016,7 hPa 0,0 l/m 0 min 0 min 230 W/m 18,8 km/h (3 Bft)
18.07.2015 09:28 19,0 C 17,8 C 77 % 0 lf 1016,8 hPa 0,0 l/m 0 min 0 min 156 W/m 14,6 km/h (3 Bft)
18.07.2015 09:30 19,0 C 17,2 C 77 % 0 lf 1016,7 hPa 0,0 l/m 0 min 0 min 136 W/m 14,6 km/h (3 Bft)
18.07.2015 09:32 19,0 C 17,2 C 77 % 0 lf 1016,7 hPa 0,0 l/m 0 min 0 min 141 W/m 14,6 km/h (3 Bft)
18.07.2015 09:34 19,0 C 17,2 C 77 % 0 lf 1016,6 hPa 0,0 l/m 0 min 0 min 154 W/m 10,5 km/h (2 Bft)
18.07.2015 09:36 18,9 C 17,2 C 77 % 0 lf 1016,6 hPa 0,0 l/m 0 min 0 min 172 W/m 10,5 km/h (2 Bft)
18.07.2015 09:38 18,9 C 17,2 C 78 % 0 lf 1016,5 hPa 0,0 l/m 2 min 0 min 308 W/m 12,6 km/h (3 Bft)
18.07.2015 09:40 18,9 C 17,2 C 78 % 0 lf 1016,6 hPa 0,0 l/m 2 min 0 min 308 W/m 12,6 km/h (3 Bft)
18.07.2015 09:42 18,9 C 17,8 C 78 % 0 lf 1016,6 hPa 0,0 l/m 0 min 0 min 277 W/m 8,4 km/h (2 Bft)
18.07.2015 09:44 19,0 C 17,8 C 78 % 0 lf 1016,6 hPa 0,0 l/m 0 min 0 min 199 W/m 16,7 km/h (3 Bft)
18.07.2015 09:46 19,0 C 17,8 C 78 % 0 lf 1016,6 hPa 0,0 l/m 0 min 0 min 273 W/m 10,5 km/h (2 Bft)
18.07.2015 09:48 19,0 C 17,8 C 79 % 0 lf 1016,6 hPa 0,0 l/m 2 min 0 min 286 W/m 12,6 km/h (3 Bft)
18.07.2015 09:50 19,1 C 17,8 C 78 % 0 lf 1016,6 hPa 0,0 l/m 0 min 0 min 254 W/m 18,8 km/h (3 Bft)
18.07.2015 09:52 19,1 C 18,3 C 79 % 0 lf 1016,6 hPa 0,0 l/m 0 min 0 min 255 W/m 10,5 km/h (2 Bft)
18.07.2015 09:54 19,2 C 18,9 C 79 % 0 lf 1016,6 hPa 0,0 l/m 2 min 0 min 359 W/m 10,5 km/h (2 Bft)
18.07.2015 09:56 19,2 C 19,4 C 79 % 0 lf 1016,6 hPa 0,0 l/m 2 min 0 min 630 W/m 12,6 km/h (3 Bft)
18.07.2015 09:58 19,4 C 20,6 C 80 % 0 lf 1016,7 hPa 0,0 l/m 2 min 0 min 601 W/m 8,4 km/h (2 Bft)
18.07.2015 10:00 19,6 C 21,1 C 80 % 0 lf 1016,7 hPa 0,0 l/m 2 min 0 min 629 W/m 12,6 km/h (3 Bft)
18.07.2015 10:02 19,8 C 21,7 C 79 % 0 lf 1016,7 hPa 0,0 l/m 2 min 0 min 677 W/m 12,6 km/h (3 Bft)
18.07.2015 10:04 20,0 C 22,8 C 79 % 0 lf 1016,7 hPa 0,0 l/m 2 min 0 min 720 W/m 12,6 km/h (3 Bft)
18.07.2015 10:06 20,2 C 23,3 C 78 % 0 lf 1016,7 hPa 0,0 l/m 2 min 0 min 694 W/m 14,6 km/h (3 Bft)
18.07.2015 10:08 20,3 C 23,3 C 77 % 0 lf 1016,7 hPa 0,0 l/m 2 min 0 min 612 W/m 14,6 km/h (3 Bft)
18.07.2015 10:10 20,4 C 23,9 C 76 % 0 lf 1016,8 hPa 0,0 l/m 2 min 0 min 589 W/m 10,5 km/h (2 Bft)
18.07.2015 10:12 20,6 C 23,9 C 76 % 0 lf 1016,7 hPa 0,0 l/m 2 min 0 min 591 W/m 18,8 km/h (3 Bft)
18.07.2015 10:14 20,7 C 22,8 C 75 % 0 lf 1016,8 hPa 0,0 l/m 2 min 0 min 488 W/m 12,6 km/h (3 Bft)
18.07.2015 10:16 20,7 C 21,7 C 75 % 0 lf 1016,8 hPa 0,0 l/m 2 min 0 min 398 W/m 14,6 km/h (3 Bft)
18.07.2015 10:18 20,8 C 21,1 C 74 % 0 lf 1016,9 hPa 0,0 l/m 2 min 0 min 382 W/m 10,5 km/h (2 Bft)
18.07.2015 10:20 20,9 C 21,1 C 74 % 0 lf 1016,8 hPa 0,0 l/m 2 min 0 min 435 W/m 12,6 km/h (3 Bft)
18.07.2015 10:22 20,9 C 21,1 C 74 % 0 lf 1016,9 hPa 0,0 l/m 2 min 0 min 489 W/m 12,6 km/h (3 Bft)
18.07.2015 10:24 21,0 C 21,1 C 74 % 0 lf 1017,0 hPa 0,0 l/m 2 min 0 min 438 W/m 10,5 km/h (2 Bft)
18.07.2015 10:26 21,0 C 21,1 C 74 % 0 lf 1017,0 hPa 0,0 l/m 2 min 0 min 374 W/m 14,6 km/h (3 Bft)
18.07.2015 10:28 21,0 C 20,6 C 74 % 0 lf 1017,0 hPa 0,0 l/m 2 min 0 min 401 W/m 14,6 km/h (3 Bft)
18.07.2015 10:30 21,1 C 21,1 C 74 % 0 lf 1017,1 hPa 0,0 l/m 2 min 0 min 444 W/m 16,7 km/h (3 Bft)
18.07.2015 10:32 21,1 C 21,1 C 74 % 0 lf 1017,2 hPa 0,0 l/m 2 min 0 min 445 W/m 12,6 km/h (3 Bft)
18.07.2015 10:34 21,1 C 21,1 C 74 % 0 lf 1017,2 hPa 0,0 l/m 2 min 0 min 453 W/m 14,6 km/h (3 Bft)
18.07.2015 10:36 21,1 C 21,1 C 74 % 0 lf 1017,2 hPa 0,0 l/m 2 min 0 min 459 W/m 14,6 km/h (3 Bft)
18.07.2015 10:38 21,2 C 21,1 C 74 % 0 lf 1017,2 hPa 0,0 l/m 2 min 0 min 417 W/m 18,8 km/h (3 Bft)
18.07.2015 10:40 21,2 C 20,6 C 74 % 0 lf 1017,2 hPa 0,0 l/m 2 min 0 min 401 W/m 20,9 km/h (4 Bft)
18.07.2015 10:42 21,2 C 20,6 C 73 % 0 lf 1017,2 hPa 0,0 l/m 2 min 0 min 392 W/m 16,7 km/h (3 Bft)
18.07.2015 10:44 21,2 C 20,6 C 74 % 0 lf 1017,2 hPa 0,0 l/m 2 min 0 min 389 W/m 14,6 km/h (3 Bft)
18.07.2015 10:46 21,2 C 20,6 C 73 % 0 lf 1017,2 hPa 0,0 l/m 2 min 0 min 404 W/m 10,5 km/h (2 Bft)
18.07.2015 10:48 21,2 C 21,1 C 73 % 0 lf 1017,3 hPa 0,0 l/m 2 min 0 min 416 W/m 10,5 km/h (2 Bft)
18.07.2015 10:50 21,3 C 21,1 C 74 % 0 lf 1017,3 hPa 0,0 l/m 2 min 0 min 406 W/m 6,3 km/h (2 Bft)
18.07.2015 10:52 21,3 C 21,1 C 73 % 0 lf 1017,3 hPa 0,0 l/m 2 min 0 min 403 W/m 10,5 km/h (2 Bft)
18.07.2015 10:54 21,3 C 21,1 C 73 % 0 lf 1017,3 hPa 0,0 l/m 2 min 0 min 411 W/m 10,5 km/h (2 Bft)
18.07.2015 10:56 21,3 C 21,1 C 72 % 0 lf 1017,3 hPa 0,0 l/m 2 min 0 min 441 W/m 12,6 km/h (3 Bft)
18.07.2015 10:58 21,3 C 21,1 C 73 % 0 lf 1017,4 hPa 0,0 l/m 2 min 0 min 469 W/m 16,7 km/h (3 Bft)
18.07.2015 11:00 21,3 C 21,1 C 72 % 0 lf 1017,4 hPa 0,0 l/m 2 min 0 min 452 W/m 25,1 km/h (4 Bft)
18.07.2015 11:02 21,3 C 21,1 C 72 % 0 lf 1017,4 hPa 0,0 l/m 2 min 0 min 466 W/m 16,7 km/h (3 Bft)
18.07.2015 11:04 21,3 C 21,1 C 72 % 0 lf 1017,5 hPa 0,0 l/m 2 min 0 min 424 W/m 16,7 km/h (3 Bft)
18.07.2015 11:06 21,3 C 21,1 C 72 % 0 lf 1017,6 hPa 0,0 l/m 2 min 0 min 401 W/m 12,6 km/h (3 Bft)
18.07.2015 11:08 21,4 C 21,1 C 72 % 0 lf 1017,6 hPa 0,0 l/m 2 min 0 min 387 W/m 14,6 km/h (3 Bft)
18.07.2015 11:10 21,3 C 21,1 C 71 % 0 lf 1017,6 hPa 0,0 l/m 2 min 0 min 369 W/m 8,4 km/h (2 Bft)
18.07.2015 11:12 21,3 C 20,6 C 72 % 0 lf 1017,4 hPa 0,0 l/m 2 min 0 min 365 W/m 14,6 km/h (3 Bft)
18.07.2015 11:14 21,4 C 21,1 C 72 % 0 lf 1017,5 hPa 0,0 l/m 2 min 0 min 365 W/m 10,5 km/h (2 Bft)
18.07.2015 11:16 21,4 C 21,1 C 72 % 0 lf 1017,4 hPa 0,0 l/m 0 min 0 min 353 W/m 8,4 km/h (2 Bft)
18.07.2015 11:18 21,4 C 21,1 C 73 % 0 lf 1017,4 hPa 0,0 l/m 0 min 0 min 351 W/m 12,6 km/h (3 Bft)
18.07.2015 11:20 21,4 C 21,1 C 72 % 0 lf 1017,4 hPa 0,0 l/m 0 min 0 min 363 W/m 12,6 km/h (3 Bft)
18.07.2015 11:22 21,4 C 21,1 C 72 % 0 lf 1017,5 hPa 0,0 l/m 0 min 0 min 362 W/m 12,6 km/h (3 Bft)
18.07.2015 11:24 21,4 C 21,1 C 72 % 0 lf 1017,5 hPa 0,0 l/m 0 min 0 min 351 W/m 20,9 km/h (4 Bft)
18.07.2015 11:26 21,4 C 21,1 C 71 % 0 lf 1017,5 hPa 0,0 l/m 0 min 0 min 343 W/m 14,6 km/h (3 Bft)
18.07.2015 11:28 21,4 C 21,1 C 71 % 0 lf 1017,6 hPa 0,0 l/m 0 min 0 min 339 W/m 14,6 km/h (3 Bft)
18.07.2015 11:30 21,4 C 21,1 C 71 % 0 lf 1017,6 hPa 0,0 l/m 0 min 0 min 338 W/m 14,6 km/h (3 Bft)
18.07.2015 11:32 21,5 C 21,1 C 71 % 0 lf 1017,7 hPa 0,0 l/m 0 min 0 min 344 W/m 14,6 km/h (3 Bft)
18.07.2015 11:34 21,4 C 21,1 C 70 % 0 lf 1017,7 hPa 0,0 l/m 0 min 0 min 356 W/m 23,0 km/h (4 Bft)
18.07.2015 11:36 21,4 C 21,1 C 70 % 0 lf 1017,7 hPa 0,0 l/m 0 min 0 min 368 W/m 20,9 km/h (4 Bft)
18.07.2015 11:38 21,4 C 21,1 C 70 % 0 lf 1017,6 hPa 0,0 l/m 2 min 0 min 378 W/m 16,7 km/h (3 Bft)
18.07.2015 11:40 21,5 C 21,1 C 71 % 0 lf 1017,7 hPa 0,0 l/m 2 min 0 min 391 W/m 14,6 km/h (3 Bft)
18.07.2015 11:42 21,5 C 21,7 C 70 % 0 lf 1017,6 hPa 0,0 l/m 2 min 0 min 425 W/m 12,6 km/h (3 Bft)
18.07.2015 11:44 21,6 C 21,7 C 71 % 0 lf 1017,6 hPa 0,0 l/m 2 min 0 min 431 W/m 16,7 km/h (3 Bft)
18.07.2015 11:46 21,6 C 21,7 C 71 % 0 lf 1017,7 hPa 0,0 l/m 2 min 0 min 402 W/m 18,8 km/h (3 Bft)
18.07.2015 11:48 21,6 C 21,7 C 70 % 0 lf 1017,8 hPa 0,0 l/m 2 min 0 min 439 W/m 18,8 km/h (3 Bft)
18.07.2015 11:50 21,7 C 22,2 C 70 % 0 lf 1017,9 hPa 0,0 l/m 2 min 0 min 480 W/m 18,8 km/h (3 Bft)
18.07.2015 11:52 21,7 C 22,2 C 69 % 0 lf 1017,9 hPa 0,0 l/m 2 min 0 min 476 W/m 18,8 km/h (3 Bft)
18.07.2015 11:54 21,7 C 22,8 C 70 % 0 lf 1017,9 hPa 0,0 l/m 2 min 0 min 526 W/m 16,7 km/h (3 Bft)
18.07.2015 11:56 21,8 C 22,8 C 70 % 0 lf 1017,8 hPa 0,0 l/m 2 min 0 min 581 W/m 16,7 km/h (3 Bft)
18.07.2015 11:58 21,8 C 22,2 C 70 % 0 lf 1017,8 hPa 0,0 l/m 2 min 0 min 424 W/m 16,7 km/h (3 Bft)
18.07.2015 12:00 21,9 C 22,8 C 70 % 0 lf 1017,7 hPa 0,0 l/m 2 min 0 min 510 W/m 18,8 km/h (3 Bft)
18.07.2015 12:02 21,9 C 23,3 C 69 % 0 lf 1017,8 hPa 0,0 l/m 2 min 0 min 696 W/m 20,9 km/h (4 Bft)
18.07.2015 12:05 22,1 C 25,0 C 71 % 0 lf 1017,7 hPa 0,0 l/m 2 min 0 min 956 W/m 14,6 km/h (3 Bft)
18.07.2015 12:08 22,3 C 24,4 C 69 % 0 lf 1017,7 hPa 0,0 l/m 2 min 0 min 921 W/m 14,6 km/h (3 Bft)
18.07.2015 12:10 22,4 C 24,4 C 69 % 0 lf 1017,6 hPa 0,0 l/m 2 min 0 min 498 W/m 16,7 km/h (3 Bft)
18.07.2015 12:12 22,5 C 24,4 C 67 % 0 lf 1017,7 hPa 0,0 l/m 2 min 0 min 551 W/m 27,2 km/h (4 Bft)
18.07.2015 12:14 22,6 C 23,9 C 67 % 0 lf 1017,7 hPa 0,0 l/m 2 min 0 min 576 W/m 18,8 km/h (3 Bft)
18.07.2015 12:16 22,6 C 24,4 C 67 % 0 lf 1017,6 hPa 0,0 l/m 2 min 0 min 584 W/m 16,7 km/h (3 Bft)
18.07.2015 12:18 22,7 C 25,0 C 67 % 0 lf 1017,6 hPa 0,0 l/m 2 min 0 min 559 W/m 23,0 km/h (4 Bft)
18.07.2015 12:20 22,8 C 25,6 C 67 % 0 lf 1017,6 hPa 0,0 l/m 2 min 0 min 504 W/m 16,7 km/h (3 Bft)
18.07.2015 12:22 23,0 C 26,7 C 67 % 0 lf 1017,6 hPa 0,0 l/m 2 min 0 min 504 W/m 14,6 km/h (3 Bft)
18.07.2015 12:24 23,1 C 26,7 C 65 % 0 lf 1017,6 hPa 0,0 l/m 2 min 0 min 506 W/m 14,6 km/h (3 Bft)
18.07.2015 12:26 23,2 C 26,1 C 66 % 0 lf 1017,6 hPa 0,0 l/m 2 min 0 min 506 W/m 23,0 km/h (4 Bft)
18.07.2015 12:28 23,3 C 26,1 C 67 % 0 lf 1017,6 hPa 0,0 l/m 2 min 0 min 589 W/m 12,6 km/h (3 Bft)
18.07.2015 12:30 23,4 C 25,0 C 66 % 0 lf 1017,6 hPa 0,0 l/m 2 min 0 min 458 W/m 18,8 km/h (3 Bft)
18.07.2015 12:32 23,5 C 24,4 C 64 % 0 lf 1017,6 hPa 0,0 l/m 0 min 0 min 308 W/m 18,8 km/h (3 Bft)
18.07.2015 12:34 23,6 C 23,9 C 64 % 0 lf 1017,6 hPa 0,0 l/m 0 min 0 min 381 W/m 18,8 km/h (3 Bft)
18.07.2015 12:36 23,6 C 23,3 C 64 % 0 lf 1017,6 hPa 0,0 l/m 0 min 0 min 340 W/m 18,8 km/h (3 Bft)
18.07.2015 12:38 23,5 C 23,3 C 63 % 0 lf 1017,6 hPa 0,0 l/m 0 min 0 min 257 W/m 16,7 km/h (3 Bft)
18.07.2015 12:40 23,6 C 25,0 C 65 % 0 lf 1017,6 hPa 0,0 l/m 2 min 0 min 872 W/m 14,6 km/h (3 Bft)
18.07.2015 12:42 23,6 C 24,4 C 64 % 0 lf 1017,5 hPa 0,0 l/m 2 min 0 min 883 W/m 16,7 km/h (3 Bft)
18.07.2015 12:44 23,6 C 23,9 C 64 % 0 lf 1017,5 hPa 0,0 l/m 2 min 0 min 643 W/m 23,0 km/h (4 Bft)
18.07.2015 12:46 23,6 C 22,8 C 63 % 0 lf 1017,5 hPa 0,0 l/m 0 min 0 min 262 W/m 14,6 km/h (3 Bft)
18.07.2015 12:48 23,6 C 24,4 C 63 % 0 lf 1017,4 hPa 0,0 l/m 0 min 0 min 255 W/m 12,6 km/h (3 Bft)
18.07.2015 12:50 23,6 C 24,4 C 63 % 0 lf 1017,4 hPa 0,0 l/m 0 min 0 min 255 W/m 25,1 km/h (4 Bft)
18.07.2015 12:52 23,7 C 25,0 C 63 % 0 lf 1017,4 hPa 0,0 l/m 2 min 0 min 552 W/m 20,9 km/h (4 Bft)
18.07.2015 12:54 23,7 C 23,9 C 62 % 0 lf 1017,4 hPa 0,0 l/m 2 min 0 min 990 W/m 20,9 km/h (4 Bft)
18.07.2015 12:56 23,7 C 23,3 C 62 % 0 lf 1017,4 hPa 0,0 l/m 2 min 0 min 990 W/m 16,7 km/h (3 Bft)
18.07.2015 12:58 23,7 C 23,3 C 61 % 0 lf 1017,4 hPa 0,0 l/m 0 min 0 min 389 W/m 18,8 km/h (3 Bft)
18.07.2015 13:00 23,7 C 23,9 C 62 % 0 lf 1017,4 hPa 0,0 l/m 2 min 0 min 452 W/m 18,8 km/h (3 Bft)
18.07.2015 13:02 23,7 C 23,9 C 63 % 0 lf 1017,4 hPa 0,0 l/m 2 min 0 min 594 W/m 14,6 km/h (3 Bft)
18.07.2015 13:04 23,8 C 23,9 C 62 % 0 lf 1017,4 hPa 0,0 l/m 2 min 0 min 893 W/m 14,6 km/h (3 Bft)
18.07.2015 13:06 23,9 C 23,9 C 62 % 0 lf 1017,4 hPa 0,0 l/m 2 min 0 min 855 W/m 10,5 km/h (2 Bft)
18.07.2015 13:08 23,9 C 23,3 C 62 % 0 lf 1017,4 hPa 0,0 l/m 0 min 0 min 247 W/m 16,7 km/h (3 Bft)
18.07.2015 13:10 23,9 C 22,8 C 61 % 0 lf 1017,4 hPa 0,0 l/m 0 min 0 min 240 W/m 20,9 km/h (4 Bft)
18.07.2015 13:12 23,8 C 22,2 C 62 % 0 lf 1017,4 hPa 0,0 l/m 0 min 0 min 219 W/m 16,7 km/h (3 Bft)
18.07.2015 13:14 23,7 C 22,8 C 61 % 0 lf 1017,4 hPa 0,0 l/m 0 min 0 min 244 W/m 20,9 km/h (4 Bft)
18.07.2015 13:16 23,7 C 23,9 C 60 % 0 lf 1017,3 hPa 0,0 l/m 2 min 0 min 572 W/m 18,8 km/h (3 Bft)
18.07.2015 13:18 23,8 C 25,0 C 61 % 0 lf 1017,4 hPa 0,0 l/m 2 min 0 min 925 W/m 20,9 km/h (4 Bft)
18.07.2015 13:20 23,9 C 26,1 C 61 % 0 lf 1017,4 hPa 0,0 l/m 2 min 0 min 957 W/m 25,1 km/h (4 Bft)
18.07.2015 13:22 24,0 C 26,7 C 59 % 0 lf 1017,4 hPa 0,0 l/m 2 min 0 min 955 W/m 23,0 km/h (4 Bft)
18.07.2015 13:24 24,2 C 27,2 C 60 % 0 lf 1017,4 hPa 0,0 l/m 2 min 0 min 957 W/m 20,9 km/h (4 Bft)
18.07.2015 13:26 24,4 C 26,1 C 58 % 0 lf 1017,3 hPa 0,0 l/m 2 min 0 min 986 W/m 27,2 km/h (4 Bft)
18.07.2015 13:28 24,5 C 25,6 C 58 % 0 lf 1017,3 hPa 0,0 l/m 2 min 0 min 930 W/m 14,6 km/h (3 Bft)
18.07.2015 13:30 24,7 C 25,6 C 58 % 0 lf 1017,3 hPa 0,0 l/m 2 min 0 min 982 W/m 27,2 km/h (4 Bft)
18.07.2015 13:32 24,9 C 25,6 C 57 % 0 lf 1017,3 hPa 0,0 l/m 2 min 0 min 978 W/m 25,1 km/h (4 Bft)
18.07.2015 13:34 25,1 C 25,6 C 55 % 0 lf 1017,2 hPa 0,0 l/m 2 min 0 min 952 W/m 25,1 km/h (4 Bft)
18.07.2015 13:36 25,1 C 25,0 C 55 % 0 lf 1017,2 hPa 0,0 l/m 2 min 0 min 939 W/m 27,2 km/h (4 Bft)
18.07.2015 13:38 25,3 C 25,0 C 56 % 0 lf 1017,4 hPa 0,0 l/m 2 min 0 min 940 W/m 25,1 km/h (4 Bft)
18.07.2015 13:40 25,3 C 24,4 C 54 % 0 lf 1017,3 hPa 0,0 l/m 2 min 0 min 921 W/m 25,1 km/h (4 Bft)
18.07.2015 13:42 25,3 C 24,4 C 54 % 0 lf 1017,2 hPa 0,0 l/m 2 min 0 min 865 W/m 18,8 km/h (3 Bft)
18.07.2015 13:44 25,4 C 24,4 C 56 % 0 lf 1017,3 hPa 0,0 l/m 2 min 0 min 894 W/m 16,7 km/h (3 Bft)
18.07.2015 13:46 25,4 C 25,0 C 55 % 0 lf 1017,4 hPa 0,0 l/m 2 min 0 min 928 W/m 25,1 km/h (4 Bft)
18.07.2015 13:48 25,5 C 24,4 C 54 % 0 lf 1017,1 hPa 0,0 l/m 2 min 0 min 909 W/m 20,9 km/h (4 Bft)
18.07.2015 13:50 25,6 C 25,0 C 55 % 0 lf 1017,2 hPa 0,0 l/m 2 min 0 min 916 W/m 27,2 km/h (4 Bft)
18.07.2015 13:52 25,6 C 25,0 C 53 % 0 lf 1017,2 hPa 0,0 l/m 2 min 0 min 926 W/m 29,3 km/h (5 Bft)
18.07.2015 13:54 25,7 C 25,6 C 53 % 0 lf 1017,3 hPa 0,0 l/m 2 min 0 min 951 W/m 23,0 km/h (4 Bft)
18.07.2015 13:56 25,7 C 25,6 C 54 % 0 lf 1017,2 hPa 0,0 l/m 2 min 0 min 962 W/m 18,8 km/h (3 Bft)
18.07.2015 13:58 25,8 C 25,0 C 53 % 0 lf 1017,2 hPa 0,0 l/m 2 min 0 min 961 W/m 23,0 km/h (4 Bft)
18.07.2015 14:00 25,9 C 25,6 C 55 % 0 lf 1017,3 hPa 0,0 l/m 2 min 0 min 958 W/m 20,9 km/h (4 Bft)
18.07.2015 14:02 26,1 C 25,0 C 54 % 0 lf 1017,3 hPa 0,0 l/m 2 min 0 min 965 W/m 18,8 km/h (3 Bft)
18.07.2015 14:04 26,2 C 25,0 C 54 % 0 lf 1017,3 hPa 0,0 l/m 2 min 0 min 967 W/m 23,0 km/h (4 Bft)
18.07.2015 14:07 26,2 C 25,0 C 52 % 0 lf 1017,3 hPa 0,0 l/m 0 min 0 min 251 W/m 20,9 km/h (4 Bft)
18.07.2015 14:08 26,2 C 25,0 C 52 % 0 lf 1017,3 hPa 0,0 l/m 0 min 0 min 251 W/m 20,9 km/h (4 Bft)
18.07.2015 14:09 26,2 C 25,0 C 52 % 0 lf 1017,3 hPa 0,0 l/m 1 min 0 min 984 W/m 14,6 km/h (3 Bft)
18.07.2015 14:10 26,3 C 25,6 C 51 % 0 lf 1017,4 hPa 0,0 l/m 1 min 0 min 970 W/m 18,8 km/h (3 Bft)
18.07.2015 14:11 26,3 C 25,0 C 52 % 0 lf 1017,3 hPa 0,0 l/m 1 min 0 min 962 W/m 12,6 km/h (3 Bft)
18.07.2015 14:12 26,3 C 25,6 C 53 % 0 lf 1017,2 hPa 0,0 l/m 1 min 0 min 947 W/m 10,5 km/h (2 Bft)
18.07.2015 14:13 26,4 C 25,6 C 53 % 0 lf 1017,2 hPa 0,0 l/m 1 min 0 min 946 W/m 10,5 km/h (2 Bft)
18.07.2015 14:14 26,4 C 25,6 C 53 % 0 lf 1017,2 hPa 0,0 l/m 1 min 0 min 942 W/m 18,8 km/h (3 Bft)
18.07.2015 14:15 26,5 C 25,6 C 52 % 0 lf 1017,2 hPa 0,0 l/m 1 min 0 min 927 W/m 29,3 km/h (5 Bft)
18.07.2015 14:16 26,6 C 25,6 C 52 % 0 lf 1017,3 hPa 0,0 l/m 1 min 0 min 940 W/m 16,7 km/h (3 Bft)
18.07.2015 14:17 26,6 C 25,6 C 52 % 0 lf 1017,2 hPa 0,0 l/m 1 min 0 min 965 W/m 14,6 km/h (3 Bft)
18.07.2015 14:18 26,7 C 25,6 C 52 % 0 lf 1017,1 hPa 0,0 l/m 1 min 0 min 976 W/m 20,9 km/h (4 Bft)
18.07.2015 14:19 26,7 C 25,6 C 52 % 0 lf 1017,1 hPa 0,0 l/m 1 min 0 min 977 W/m 16,7 km/h (3 Bft)
18.07.2015 14:20 26,8 C 25,6 C 52 % 0 lf 1017,1 hPa 0,0 l/m 1 min 0 min 947 W/m 23,0 km/h (4 Bft)
18.07.2015 14:21 26,8 C 26,1 C 51 % 0 lf 1017,1 hPa 0,0 l/m 1 min 0 min 984 W/m 18,8 km/h (3 Bft)
18.07.2015 14:22 26,8 C 25,6 C 52 % 0 lf 1017,1 hPa 0,0 l/m 1 min 0 min 984 W/m 16,7 km/h (3 Bft)
18.07.2015 14:23 26,8 C 25,6 C 50 % 0 lf 1017,0 hPa 0,0 l/m 1 min 0 min 984 W/m 14,6 km/h (3 Bft)
18.07.2015 14:24 26,8 C 25,6 C 50 % 0 lf 1017,1 hPa 0,0 l/m 1 min 0 min 984 W/m 27,2 km/h (4 Bft)
18.07.2015 14:25 26,8 C 25,6 C 50 % 0 lf 1017,0 hPa 0,0 l/m 1 min 0 min 944 W/m 23,0 km/h (4 Bft)
18.07.2015 14:26 26,8 C 25,6 C 51 % 0 lf 1017,1 hPa 0,0 l/m 1 min 0 min 938 W/m 25,1 km/h (4 Bft)
18.07.2015 14:27 26,7 C 25,6 C 51 % 0 lf 1017,0 hPa 0,0 l/m 1 min 0 min 935 W/m 23,0 km/h (4 Bft)
18.07.2015 14:28 26,7 C 25,6 C 51 % 0 lf 1017,0 hPa 0,0 l/m 1 min 0 min 935 W/m 27,2 km/h (4 Bft)
18.07.2015 14:29 26,7 C 25,6 C 51 % 0 lf 1017,0 hPa 0,0 l/m 1 min 0 min 935 W/m 31,4 km/h (5 Bft)
18.07.2015 14:30 26,7 C 25,6 C 51 % 0 lf 1016,9 hPa 0,0 l/m 1 min 0 min 953 W/m 27,2 km/h (4 Bft)
18.07.2015 14:32 26,7 C 25,0 C 50 % 0 lf 1016,9 hPa 0,0 l/m 2 min 0 min 953 W/m 16,7 km/h (3 Bft)
18.07.2015 14:34 26,6 C 25,0 C 49 % 0 lf 1016,9 hPa 0,0 l/m 0 min 0 min 268 W/m 23,0 km/h (4 Bft)
18.07.2015 14:36 26,6 C 25,0 C 51 % 0 lf 1016,8 hPa 0,0 l/m 2 min 0 min 601 W/m 23,0 km/h (4 Bft)
18.07.2015 14:38 26,6 C 25,0 C 51 % 0 lf 1016,9 hPa 0,0 l/m 2 min 0 min 905 W/m 25,1 km/h (4 Bft)
18.07.2015 14:40 26,6 C 25,6 C 52 % 0 lf 1016,8 hPa 0,0 l/m 2 min 0 min 895 W/m 14,6 km/h (3 Bft)
18.07.2015 14:42 26,6 C 25,6 C 51 % 0 lf 1016,9 hPa 0,0 l/m 2 min 0 min 879 W/m 31,4 km/h (5 Bft)
18.07.2015 14:44 26,6 C 25,6 C 50 % 0 lf 1016,9 hPa 0,0 l/m 2 min 0 min 879 W/m 25,1 km/h (4 Bft)
18.07.2015 14:46 26,7 C 25,6 C 52 % 0 lf 1016,9 hPa 0,0 l/m 2 min 0 min 874 W/m 20,9 km/h (4 Bft)
18.07.2015 14:48 26,7 C 25,6 C 51 % 0 lf 1016,8 hPa 0,0 l/m 2 min 0 min 872 W/m 14,6 km/h (3 Bft)
18.07.2015 14:50 26,8 C 25,6 C 51 % 0 lf 1016,8 hPa 0,0 l/m 2 min 0 min 884 W/m 20,9 km/h (4 Bft)
18.07.2015 14:52 26,8 C 25,6 C 49 % 0 lf 1016,7 hPa 0,0 l/m 2 min 0 min 856 W/m 23,0 km/h (4 Bft)
18.07.2015 14:54 26,9 C 25,6 C 50 % 0 lf 1016,7 hPa 0,0 l/m 2 min 0 min 848 W/m 29,3 km/h (5 Bft)
18.07.2015 14:56 26,9 C 25,6 C 49 % 0 lf 1016,7 hPa 0,0 l/m 2 min 0 min 865 W/m 31,4 km/h (5 Bft)
18.07.2015 14:58 26,9 C 25,6 C 49 % 0 lf 1016,7 hPa 0,0 l/m 2 min 0 min 842 W/m 27,2 km/h (4 Bft)
18.07.2015 15:00 26,9 C 25,6 C 49 % 0 lf 1016,7 hPa 0,0 l/m 2 min 0 min 804 W/m 25,1 km/h (4 Bft)
18.07.2015 15:02 27,0 C 25,6 C 49 % 0 lf 1016,7 hPa 0,0 l/m 2 min 0 min 885 W/m 20,9 km/h (4 Bft)
18.07.2015 15:04 27,1 C 25,6 C 48 % 0 lf 1016,6 hPa 0,0 l/m 2 min 0 min 876 W/m 18,8 km/h (3 Bft)
18.07.2015 15:06 27,1 C 25,6 C 48 % 0 lf 1016,7 hPa 0,0 l/m 2 min 0 min 848 W/m 33,5 km/h (5 Bft)
18.07.2015 15:08 27,2 C 25,6 C 48 % 0 lf 1016,6 hPa 0,0 l/m 2 min 0 min 847 W/m 35,6 km/h (5 Bft)
18.07.2015 15:10 27,1 C 25,6 C 47 % 0 lf 1016,6 hPa 0,0 l/m 2 min 0 min 839 W/m 23,0 km/h (4 Bft)
18.07.2015 15:12 27,2 C 25,6 C 48 % 0 lf 1016,6 hPa 0,0 l/m 2 min 0 min 844 W/m 25,1 km/h (4 Bft)
18.07.2015 15:14 27,2 C 25,6 C 48 % 0 lf 1016,6 hPa 0,0 l/m 2 min 0 min 873 W/m 16,7 km/h (3 Bft)
18.07.2015 15:16 27,2 C 26,1 C 49 % 0 lf 1016,6 hPa 0,0 l/m 2 min 0 min 894 W/m 20,9 km/h (4 Bft)
18.07.2015 15:18 27,3 C 26,1 C 47 % 0 lf 1016,6 hPa 0,0 l/m 2 min 0 min 875 W/m 18,8 km/h (3 Bft)
18.07.2015 15:20 27,3 C 26,1 C 48 % 0 lf 1016,5 hPa 0,0 l/m 2 min 0 min 815 W/m 14,6 km/h (3 Bft)
18.07.2015 15:22 27,4 C 26,1 C 48 % 0 lf 1016,5 hPa 0,0 l/m 2 min 0 min 836 W/m 20,9 km/h (4 Bft)
18.07.2015 15:24 27,4 C 25,6 C 48 % 0 lf 1016,4 hPa 0,0 l/m 2 min 0 min 814 W/m 27,2 km/h (4 Bft)
18.07.2015 15:26 27,5 C 25,6 C 49 % 0 lf 1016,4 hPa 0,0 l/m 2 min 0 min 809 W/m 20,9 km/h (4 Bft)
18.07.2015 15:28 27,5 C 25,6 C 48 % 0 lf 1016,4 hPa 0,0 l/m 2 min 0 min 810 W/m 12,6 km/h (3 Bft)
18.07.2015 15:30 27,6 C 26,1 C 50 % 0 lf 1016,4 hPa 0,0 l/m 2 min 0 min 810 W/m 16,7 km/h (3 Bft)
18.07.2015 15:32 27,6 C 25,6 C 47 % 0 lf 1016,4 hPa 0,0 l/m 2 min 0 min 817 W/m 27,2 km/h (4 Bft)
18.07.2015 15:34 27,6 C 25,6 C 49 % 0 lf 1016,4 hPa 0,0 l/m 2 min 0 min 817 W/m 25,1 km/h (4 Bft)
18.07.2015 15:36 27,7 C 26,1 C 49 % 0 lf 1016,4 hPa 0,0 l/m 2 min 0 min 805 W/m 20,9 km/h (4 Bft)
18.07.2015 15:38 27,7 C 25,6 C 49 % 0 lf 1016,4 hPa 0,0 l/m 2 min 0 min 796 W/m 20,9 km/h (4 Bft)
18.07.2015 15:40 27,7 C 25,6 C 47 % 0 lf 1016,4 hPa 0,0 l/m 2 min 0 min 789 W/m 16,7 km/h (3 Bft)
18.07.2015 15:42 27,8 C 25,6 C 49 % 0 lf 1016,4 hPa 0,0 l/m 2 min 0 min 794 W/m 23,0 km/h (4 Bft)
18.07.2015 15:44 27,8 C 25,0 C 46 % 0 lf 1016,4 hPa 0,0 l/m 2 min 0 min 791 W/m 18,8 km/h (3 Bft)
18.07.2015 15:46 27,8 C 25,0 C 48 % 0 lf 1016,4 hPa 0,0 l/m 2 min 0 min 790 W/m 27,2 km/h (4 Bft)
18.07.2015 15:48 27,8 C 25,0 C 46 % 0 lf 1016,5 hPa 0,0 l/m 2 min 0 min 779 W/m 31,4 km/h (5 Bft)
18.07.2015 15:50 27,6 C 24,4 C 45 % 0 lf 1016,5 hPa 0,0 l/m 2 min 0 min 770 W/m 27,2 km/h (4 Bft)
18.07.2015 15:52 27,5 C 24,4 C 44 % 0 lf 1016,4 hPa 0,0 l/m 2 min 0 min 755 W/m 16,7 km/h (3 Bft)
18.07.2015 15:54 27,5 C 24,4 C 46 % 0 lf 1016,3 hPa 0,0 l/m 2 min 0 min 797 W/m 16,7 km/h (3 Bft)
18.07.2015 15:55 27,5 C 24,4 C 46 % 0 lf 1016,2 hPa 0,0 l/m 1 min 0 min 810 W/m 10,5 km/h (2 Bft)
18.07.2015 15:56 27,5 C 25,0 C 47 % 0 lf 1016,2 hPa 0,0 l/m 1 min 0 min 807 W/m 12,6 km/h (3 Bft)
18.07.2015 15:57 27,6 C 25,0 C 48 % 0 lf 1016,2 hPa 0,0 l/m 1 min 0 min 802 W/m 23,0 km/h (4 Bft)
18.07.2015 15:58 27,6 C 25,0 C 45 % 0 lf 1016,3 hPa 0,0 l/m 1 min 0 min 802 W/m 18,8 km/h (3 Bft)
18.07.2015 15:59 27,4 C 25,0 C 47 % 0 lf 1016,3 hPa 0,0 l/m 1 min 0 min 802 W/m 20,9 km/h (4 Bft)
18.07.2015 16:04 26,7 C 25,0 C 48 % 0 lf 1016,3 hPa 0,0 l/m 2 min 0 min 773 W/m 20,9 km/h (4 Bft)
18.07.2015 16:06 26,6 C 25,0 C 48 % 0 lf 1016,3 hPa 0,0 l/m 2 min 0 min 744 W/m 20,9 km/h (4 Bft)
18.07.2015 16:07 26,5 C 25,0 C 50 % 0 lf 1016,3 hPa 0,0 l/m 1 min 0 min 751 W/m 10,5 km/h (2 Bft)
18.07.2015 16:08 26,6 C 25,6 C 50 % 0 lf 1016,2 hPa 0,0 l/m 1 min 0 min 770 W/m 16,7 km/h (3 Bft)
18.07.2015 16:09 26,6 C 25,6 C 49 % 0 lf 1016,2 hPa 0,0 l/m 1 min 0 min 768 W/m 16,7 km/h (3 Bft)
18.07.2015 16:10 26,6 C 25,6 C 47 % 0 lf 1016,2 hPa 0,0 l/m 1 min 0 min 775 W/m 18,8 km/h (3 Bft)
18.07.2015 16:11 26,5 C 25,6 C 52 % 0 lf 1016,2 hPa 0,0 l/m 1 min 0 min 775 W/m 10,5 km/h (2 Bft)
18.07.2015 16:12 26,6 C 25,6 C 48 % 0 lf 1016,1 hPa 0,0 l/m 1 min 0 min 794 W/m 14,6 km/h (3 Bft)
18.07.2015 16:13 26,7 C 25,6 C 49 % 0 lf 1016,2 hPa 0,0 l/m 1 min 0 min 800 W/m 25,1 km/h (4 Bft)
18.07.2015 16:14 26,8 C 25,6 C 49 % 0 lf 1016,1 hPa 0,0 l/m 1 min 0 min 775 W/m 20,9 km/h (4 Bft)
18.07.2015 16:15 26,8 C 25,6 C 48 % 0 lf 1016,1 hPa 0,0 l/m 1 min 0 min 810 W/m 12,6 km/h (3 Bft)
18.07.2015 16:16 27,0 C 26,1 C 49 % 0 lf 1016,1 hPa 0,0 l/m 1 min 0 min 749 W/m 18,8 km/h (3 Bft)
18.07.2015 16:17 27,1 C 26,1 C 49 % 0 lf 1016,2 hPa 0,0 l/m 1 min 0 min 823 W/m 25,1 km/h (4 Bft)
18.07.2015 16:18 27,1 C 26,1 C 47 % 0 lf 1016,2 hPa 0,0 l/m 1 min 0 min 793 W/m 20,9 km/h (4 Bft)
18.07.2015 16:20 27,1 C 27,2 C 48 % 0 lf 1016,2 hPa 0,0 l/m 2 min 0 min 802 W/m 16,7 km/h (3 Bft)
18.07.2015 16:22 26,9 C 27,2 C 47 % 0 lf 1016,0 hPa 0,0 l/m 2 min 0 min 836 W/m 18,8 km/h (3 Bft)
18.07.2015 16:24 26,9 C 26,7 C 50 % 0 lf 1015,8 hPa 0,0 l/m 2 min 0 min 845 W/m 16,7 km/h (3 Bft)
18.07.2015 16:26 27,1 C 27,8 C 50 % 0 lf 1015,9 hPa 0,0 l/m 2 min 0 min 861 W/m 20,9 km/h (4 Bft)
18.07.2015 16:28 27,2 C 27,8 C 47 % 0 lf 1016,0 hPa 0,0 l/m 2 min 0 min 855 W/m 25,1 km/h (4 Bft)
18.07.2015 16:30 27,1 C 27,2 C 47 % 0 lf 1016,0 hPa 0,0 l/m 2 min 0 min 845 W/m 29,3 km/h (5 Bft)
18.07.2015 16:32 27,2 C 27,2 C 48 % 0 lf 1016,0 hPa 0,0 l/m 2 min 0 min 844 W/m 16,7 km/h (3 Bft)
18.07.2015 16:34 27,3 C 27,2 C 48 % 0 lf 1016,0 hPa 0,0 l/m 2 min 0 min 793 W/m 18,8 km/h (3 Bft)
18.07.2015 16:36 27,2 C 26,7 C 48 % 0 lf 1015,9 hPa 0,0 l/m 2 min 0 min 698 W/m 12,6 km/h (3 Bft)
18.07.2015 16:38 27,2 C 26,7 C 49 % 0 lf 1015,8 hPa 0,0 l/m 2 min 0 min 715 W/m 12,6 km/h (3 Bft)
18.07.2015 16:40 27,3 C 26,7 C 47 % 0 lf 1015,9 hPa 0,0 l/m 2 min 0 min 816 W/m 18,8 km/h (3 Bft)
18.07.2015 16:42 27,3 C 26,7 C 46 % 0 lf 1015,8 hPa 0,0 l/m 2 min 0 min 642 W/m 29,3 km/h (5 Bft)
18.07.2015 16:44 27,3 C 26,1 C 47 % 0 lf 1015,8 hPa 0,0 l/m 2 min 0 min 611 W/m 27,2 km/h (4 Bft)
18.07.2015 16:46 27,3 C 26,1 C 47 % 0 lf 1015,9 hPa 0,0 l/m 2 min 0 min 723 W/m 35,6 km/h (5 Bft)
18.07.2015 16:48 27,4 C 26,1 C 48 % 0 lf 1015,8 hPa 0,0 l/m 2 min 0 min 757 W/m 18,8 km/h (3 Bft)
18.07.2015 16:50 27,4 C 26,1 C 48 % 0 lf 1015,7 hPa 0,0 l/m 2 min 0 min 680 W/m 20,9 km/h (4 Bft)
18.07.2015 16:52 27,4 C 25,6 C 46 % 0 lf 1015,8 hPa 0,0 l/m 2 min 0 min 378 W/m 23,0 km/h (4 Bft)
18.07.2015 16:54 27,4 C 25,6 C 46 % 0 lf 1015,8 hPa 0,0 l/m 2 min 0 min 395 W/m 23,0 km/h (4 Bft)
18.07.2015 16:56 27,4 C 25,6 C 47 % 0 lf 1015,8 hPa 0,0 l/m 2 min 0 min 510 W/m 14,6 km/h (3 Bft)
18.07.2015 16:58 27,5 C 26,1 C 46 % 0 lf 1015,8 hPa 0,0 l/m 2 min 0 min 785 W/m 14,6 km/h (3 Bft)
18.07.2015 17:00 27,6 C 26,1 C 47 % 0 lf 1015,8 hPa 0,0 l/m 2 min 0 min 832 W/m 16,7 km/h (3 Bft)
18.07.2015 17:02 27,7 C 26,7 C 47 % 0 lf 1015,8 hPa 0,0 l/m 2 min 0 min 848 W/m 23,0 km/h (4 Bft)
18.07.2015 17:04 27,7 C 26,7 C 46 % 0 lf 1015,9 hPa 0,0 l/m 2 min 0 min 825 W/m 29,3 km/h (5 Bft)
18.07.2015 17:06 27,8 C 26,7 C 46 % 0 lf 1015,9 hPa 0,0 l/m 2 min 0 min 808 W/m 16,7 km/h (3 Bft)
18.07.2015 17:08 27,9 C 26,7 C 47 % 0 lf 1015,9 hPa 0,0 l/m 2 min 0 min 749 W/m 18,8 km/h (3 Bft)
18.07.2015 17:10 27,9 C 26,7 C 46 % 0 lf 1015,9 hPa 0,0 l/m 2 min 0 min 703 W/m 18,8 km/h (3 Bft)
18.07.2015 17:12 27,9 C 26,7 C 46 % 0 lf 1015,8 hPa 0,0 l/m 2 min 0 min 656 W/m 23,0 km/h (4 Bft)
18.07.2015 17:14 28,1 C 26,7 C 45 % 0 lf 1015,8 hPa 0,0 l/m 2 min 0 min 745 W/m 20,9 km/h (4 Bft)
18.07.2015 17:16 28,1 C 26,1 C 45 % 0 lf 1015,8 hPa 0,0 l/m 2 min 0 min 694 W/m 20,9 km/h (4 Bft)
18.07.2015 17:18 28,1 C 26,1 C 46 % 0 lf 1015,8 hPa 0,0 l/m 2 min 0 min 652 W/m 18,8 km/h (3 Bft)
18.07.2015 17:20 28,0 C 25,6 C 46 % 0 lf 1015,7 hPa 0,0 l/m 2 min 0 min 656 W/m 14,6 km/h (3 Bft)
18.07.2015 17:22 27,9 C 25,6 C 44 % 0 lf 1015,7 hPa 0,0 l/m 2 min 0 min 632 W/m 10,5 km/h (2 Bft)
18.07.2015 17:24 27,9 C 25,0 C 45 % 0 lf 1015,6 hPa 0,0 l/m 2 min 0 min 618 W/m 12,6 km/h (3 Bft)
18.07.2015 17:26 27,8 C 25,0 C 45 % 0 lf 1015,7 hPa 0,0 l/m 2 min 0 min 552 W/m 14,6 km/h (3 Bft)
18.07.2015 17:28 27,8 C 24,4 C 44 % 0 lf 1015,7 hPa 0,0 l/m 2 min 0 min 407 W/m 18,8 km/h (3 Bft)
18.07.2015 17:30 27,7 C 24,4 C 44 % 0 lf 1015,6 hPa 0,0 l/m 2 min 0 min 548 W/m 16,7 km/h (3 Bft)
18.07.2015 17:32 27,6 C 24,4 C 46 % 0 lf 1015,7 hPa 0,0 l/m 2 min 0 min 540 W/m 25,1 km/h (4 Bft)
18.07.2015 17:34 27,6 C 25,0 C 46 % 0 lf 1015,6 hPa 0,0 l/m 2 min 0 min 602 W/m 18,8 km/h (3 Bft)
18.07.2015 17:36 27,4 C 25,0 C 45 % 0 lf 1015,7 hPa 0,0 l/m 2 min 0 min 616 W/m 12,6 km/h (3 Bft)
18.07.2015 17:38 27,4 C 24,4 C 45 % 0 lf 1015,6 hPa 0,0 l/m 2 min 0 min 604 W/m 23,0 km/h (4 Bft)
18.07.2015 17:40 27,3 C 24,4 C 45 % 0 lf 1015,6 hPa 0,0 l/m 2 min 0 min 578 W/m 29,3 km/h (5 Bft)
18.07.2015 17:42 27,1 C 24,4 C 46 % 0 lf 1015,6 hPa 0,0 l/m 2 min 0 min 561 W/m 31,4 km/h (5 Bft)
18.07.2015 17:44 27,0 C 24,4 C 47 % 0 lf 1015,5 hPa 0,0 l/m 2 min 0 min 557 W/m 27,2 km/h (4 Bft)
18.07.2015 17:46 27,0 C 24,4 C 46 % 0 lf 1015,5 hPa 0,0 l/m 2 min 0 min 513 W/m 18,8 km/h (3 Bft)
18.07.2015 17:48 26,9 C 24,4 C 46 % 0 lf 1015,4 hPa 0,0 l/m 2 min 0 min 514 W/m 16,7 km/h (3 Bft)
18.07.2015 17:50 26,8 C 23,9 C 46 % 0 lf 1015,5 hPa 0,0 l/m 2 min 0 min 529 W/m 14,6 km/h (3 Bft)
18.07.2015 17:52 26,8 C 23,9 C 46 % 0 lf 1015,5 hPa 0,0 l/m 2 min 0 min 474 W/m 27,2 km/h (4 Bft)
18.07.2015 17:54 26,7 C 23,9 C 46 % 0 lf 1015,6 hPa 0,0 l/m 2 min 0 min 413 W/m 27,2 km/h (4 Bft)
18.07.2015 17:56 26,7 C 23,9 C 46 % 0 lf 1015,5 hPa 0,0 l/m 2 min 0 min 350 W/m 8,4 km/h (2 Bft)
18.07.2015 17:58 26,7 C 23,9 C 47 % 0 lf 1015,5 hPa 0,0 l/m 2 min 0 min 348 W/m 14,6 km/h (3 Bft)
18.07.2015 18:00 26,6 C 23,9 C 47 % 0 lf 1015,4 hPa 0,0 l/m 2 min 0 min 335 W/m 12,6 km/h (3 Bft)
18.07.2015 18:02 26,6 C 23,9 C 47 % 0 lf 1015,5 hPa 0,0 l/m 2 min 0 min 355 W/m 12,6 km/h (3 Bft)
18.07.2015 18:05 26,5 C 23,9 C 46 % 0 lf 1015,4 hPa 0,0 l/m 2 min 0 min 490 W/m 12,6 km/h (3 Bft)
18.07.2015 18:08 26,4 C 23,3 C 47 % 0 lf 1015,3 hPa 0,0 l/m 2 min 0 min 499 W/m 25,1 km/h (4 Bft)
18.07.2015 18:10 26,3 C 23,3 C 47 % 0 lf 1015,3 hPa 0,0 l/m 2 min 0 min 387 W/m 23,0 km/h (4 Bft)
18.07.2015 18:12 26,2 C 23,3 C 47 % 0 lf 1015,2 hPa 0,0 l/m 2 min 0 min 439 W/m 20,9 km/h (4 Bft)
18.07.2015 18:14 26,2 C 23,3 C 47 % 0 lf 1015,3 hPa 0,0 l/m 2 min 0 min 486 W/m 20,9 km/h (4 Bft)
18.07.2015 18:16 26,1 C 23,3 C 47 % 0 lf 1015,4 hPa 0,0 l/m 2 min 0 min 445 W/m 18,8 km/h (3 Bft)
18.07.2015 18:18 26,1 C 23,3 C 47 % 0 lf 1015,4 hPa 0,0 l/m 2 min 0 min 386 W/m 16,7 km/h (3 Bft)
18.07.2015 18:20 26,0 C 23,3 C 47 % 0 lf 1015,3 hPa 0,0 l/m 0 min 0 min 228 W/m 16,7 km/h (3 Bft)
18.07.2015 18:22 26,0 C 23,3 C 47 % 0 lf 1015,2 hPa 0,0 l/m 2 min 0 min 263 W/m 10,5 km/h (2 Bft)
18.07.2015 18:24 25,9 C 23,3 C 48 % 0 lf 1015,2 hPa 0,0 l/m 2 min 0 min 230 W/m 14,6 km/h (3 Bft)
18.07.2015 18:26 25,9 C 23,3 C 49 % 0 lf 1015,3 hPa 0,0 l/m 2 min 0 min 239 W/m 14,6 km/h (3 Bft)
18.07.2015 18:28 25,8 C 23,3 C 48 % 0 lf 1015,3 hPa 0,0 l/m 0 min 0 min 183 W/m 18,8 km/h (3 Bft)
18.07.2015 18:30 25,8 C 23,3 C 48 % 0 lf 1015,3 hPa 0,0 l/m 0 min 0 min 178 W/m 12,6 km/h (3 Bft)
18.07.2015 18:32 25,7 C 23,3 C 48 % 0 lf 1015,3 hPa 0,0 l/m 0 min 0 min 161 W/m 16,7 km/h (3 Bft)
18.07.2015 18:34 25,7 C 23,3 C 48 % 0 lf 1015,2 hPa 0,0 l/m 0 min 0 min 176 W/m 14,6 km/h (3 Bft)
18.07.2015 18:36 25,6 C 23,3 C 49 % 0 lf 1015,3 hPa 0,0 l/m 2 min 0 min 228 W/m 14,6 km/h (3 Bft)
18.07.2015 18:38 25,5 C 23,3 C 49 % 0 lf 1015,2 hPa 0,0 l/m 2 min 0 min 220 W/m 18,8 km/h (3 Bft)
18.07.2015 18:40 25,4 C 23,3 C 49 % 0 lf 1015,2 hPa 0,0 l/m 0 min 0 min 196 W/m 14,6 km/h (3 Bft)
18.07.2015 18:42 25,4 C 23,3 C 48 % 0 lf 1015,2 hPa 0,0 l/m 0 min 0 min 182 W/m 18,8 km/h (3 Bft)
18.07.2015 18:44 25,3 C 23,3 C 48 % 0 lf 1015,3 hPa 0,0 l/m 0 min 0 min 191 W/m 8,4 km/h (2 Bft)
18.07.2015 18:46 25,3 C 23,3 C 49 % 0 lf 1015,2 hPa 0,0 l/m 0 min 0 min 198 W/m 10,5 km/h (2 Bft)
18.07.2015 18:48 25,2 C 23,3 C 48 % 0 lf 1015,2 hPa 0,0 l/m 0 min 0 min 198 W/m 10,5 km/h (2 Bft)
18.07.2015 18:50 25,2 C 23,3 C 49 % 0 lf 1015,2 hPa 0,0 l/m 2 min 0 min 200 W/m 8,4 km/h (2 Bft)
18.07.2015 18:52 25,1 C 23,3 C 48 % 0 lf 1015,2 hPa 0,0 l/m 2 min 0 min 276 W/m 14,6 km/h (3 Bft)
18.07.2015 18:54 25,1 C 23,3 C 48 % 0 lf 1015,1 hPa 0,0 l/m 2 min 0 min 212 W/m 14,6 km/h (3 Bft)
18.07.2015 18:56 25,1 C 23,3 C 48 % 0 lf 1015,1 hPa 0,0 l/m 0 min 0 min 159 W/m 18,8 km/h (3 Bft)
18.07.2015 18:58 25,1 C 23,3 C 49 % 0 lf 1015,2 hPa 0,0 l/m 0 min 0 min 142 W/m 16,7 km/h (3 Bft)
18.07.2015 19:00 25,0 C 23,3 C 49 % 0 lf 1015,1 hPa 0,0 l/m 0 min 0 min 131 W/m 14,6 km/h (3 Bft)
18.07.2015 19:02 24,9 C 22,8 C 50 % 0 lf 1015,1 hPa 0,0 l/m 0 min 0 min 122 W/m 12,6 km/h (3 Bft)
18.07.2015 19:04 24,9 C 22,8 C 51 % 0 lf 1015,0 hPa 0,0 l/m 0 min 0 min 120 W/m 12,6 km/h (3 Bft)
18.07.2015 19:06 24,9 C 22,8 C 52 % 0 lf 1015,0 hPa 0,0 l/m 0 min 0 min 122 W/m 6,3 km/h (2 Bft)
18.07.2015 19:08 24,8 C 22,8 C 51 % 0 lf 1015,1 hPa 0,0 l/m 0 min 0 min 125 W/m 12,6 km/h (3 Bft)
18.07.2015 19:10 24,8 C 22,8 C 51 % 0 lf 1015,1 hPa 0,0 l/m 0 min 0 min 129 W/m 8,4 km/h (2 Bft)
18.07.2015 19:12 24,8 C 22,8 C 49 % 0 lf 1015,1 hPa 0,0 l/m 0 min 0 min 149 W/m 12,6 km/h (3 Bft)
18.07.2015 19:14 24,7 C 22,8 C 50 % 0 lf 1015,0 hPa 0,0 l/m 0 min 0 min 139 W/m 14,6 km/h (3 Bft)
18.07.2015 19:16 24,7 C 22,8 C 51 % 0 lf 1015,0 hPa 0,0 l/m 0 min 0 min 127 W/m 10,5 km/h (2 Bft)
18.07.2015 19:18 24,7 C 22,8 C 50 % 0 lf 1015,0 hPa 0,0 l/m 0 min 0 min 126 W/m 12,6 km/h (3 Bft)
18.07.2015 19:20 24,7 C 22,8 C 51 % 0 lf 1015,1 hPa 0,0 l/m 0 min 0 min 128 W/m 8,4 km/h (2 Bft)
18.07.2015 19:22 24,6 C 22,8 C 51 % 0 lf 1015,1 hPa 0,0 l/m 0 min 0 min 131 W/m 8,4 km/h (2 Bft)
18.07.2015 19:24 24,6 C 22,8 C 52 % 0 lf 1015,1 hPa 0,0 l/m 0 min 0 min 131 W/m 10,5 km/h (2 Bft)
18.07.2015 19:26 24,6 C 22,8 C 52 % 0 lf 1015,1 hPa 0,0 l/m 0 min 0 min 123 W/m 14,6 km/h (3 Bft)
18.07.2015 19:28 24,6 C 22,8 C 53 % 0 lf 1015,1 hPa 0,0 l/m 0 min 0 min 111 W/m 8,4 km/h (2 Bft)
18.07.2015 19:30 24,6 C 22,8 C 52 % 0 lf 1015,1 hPa 0,0 l/m 0 min 0 min 105 W/m 10,5 km/h (2 Bft)
18.07.2015 19:32 24,5 C 22,2 C 52 % 0 lf 1015,1 hPa 0,0 l/m 0 min 0 min 108 W/m 12,6 km/h (3 Bft)
18.07.2015 19:34 24,5 C 22,2 C 52 % 0 lf 1015,1 hPa 0,0 l/m 0 min 0 min 116 W/m 8,4 km/h (2 Bft)
18.07.2015 19:36 24,5 C 22,8 C 52 % 0 lf 1015,1 hPa 0,0 l/m 0 min 0 min 122 W/m 12,6 km/h (3 Bft)
18.07.2015 19:38 24,4 C 22,8 C 52 % 0 lf 1015,1 hPa 0,0 l/m 0 min 0 min 121 W/m 8,4 km/h (2 Bft)
18.07.2015 19:40 24,4 C 22,2 C 52 % 0 lf 1015,2 hPa 0,0 l/m 0 min 0 min 114 W/m 12,6 km/h (3 Bft)
18.07.2015 19:42 24,3 C 22,2 C 52 % 0 lf 1015,2 hPa 0,0 l/m 0 min 0 min 107 W/m 10,5 km/h (2 Bft)
18.07.2015 19:44 24,3 C 22,2 C 52 % 0 lf 1015,1 hPa 0,0 l/m 0 min 0 min 107 W/m 8,4 km/h (2 Bft)
18.07.2015 19:46 24,2 C 22,2 C 52 % 0 lf 1015,2 hPa 0,0 l/m 0 min 0 min 101 W/m 10,5 km/h (2 Bft)
18.07.2015 19:48 24,2 C 22,2 C 52 % 0 lf 1015,2 hPa 0,0 l/m 0 min 0 min 112 W/m 14,6 km/h (3 Bft)
18.07.2015 19:50 24,2 C 22,2 C 53 % 0 lf 1015,2 hPa 0,0 l/m 2 min 0 min 206 W/m 10,5 km/h (2 Bft)
18.07.2015 19:52 24,1 C 22,2 C 52 % 0 lf 1015,3 hPa 0,0 l/m 2 min 0 min 248 W/m 14,6 km/h (3 Bft)
18.07.2015 19:54 24,1 C 22,2 C 52 % 0 lf 1015,2 hPa 0,0 l/m 2 min 0 min 253 W/m 12,6 km/h (3 Bft)
18.07.2015 19:56 24,1 C 22,8 C 52 % 0 lf 1015,3 hPa 0,0 l/m 2 min 0 min 278 W/m 12,6 km/h (3 Bft)
18.07.2015 19:58 24,0 C 22,8 C 52 % 0 lf 1015,2 hPa 0,0 l/m 2 min 0 min 289 W/m 12,6 km/h (3 Bft)
18.07.2015 20:00 24,0 C 22,8 C 52 % 0 lf 1015,2 hPa 0,0 l/m 2 min 0 min 288 W/m 10,5 km/h (2 Bft)
18.07.2015 20:02 24,0 C 22,8 C 53 % 0 lf 1015,2 hPa 0,0 l/m 2 min 0 min 264 W/m 12,6 km/h (3 Bft)
18.07.2015 20:04 24,0 C 22,8 C 53 % 0 lf 1015,3 hPa 0,0 l/m 2 min 0 min 229 W/m 12,6 km/h (3 Bft)
18.07.2015 20:06 23,9 C 22,8 C 52 % 0 lf 1015,2 hPa 0,0 l/m 2 min 0 min 199 W/m 14,6 km/h (3 Bft)
18.07.2015 20:08 23,9 C 22,2 C 52 % 0 lf 1015,2 hPa 0,0 l/m 2 min 0 min 184 W/m 12,6 km/h (3 Bft)
18.07.2015 20:10 23,9 C 22,2 C 53 % 0 lf 1015,3 hPa 0,0 l/m 2 min 0 min 174 W/m 12,6 km/h (3 Bft)
18.07.2015 20:12 23,9 C 22,2 C 52 % 0 lf 1015,3 hPa 0,0 l/m 2 min 0 min 160 W/m 12,6 km/h (3 Bft)
18.07.2015 20:14 23,9 C 22,2 C 52 % 0 lf 1015,3 hPa 0,0 l/m 2 min 0 min 150 W/m 12,6 km/h (3 Bft)
18.07.2015 20:16 23,9 C 22,2 C 52 % 0 lf 1015,2 hPa 0,0 l/m 2 min 0 min 138 W/m 8,4 km/h (2 Bft)
18.07.2015 20:18 23,8 C 22,2 C 52 % 0 lf 1015,2 hPa 0,0 l/m 2 min 0 min 128 W/m 12,6 km/h (3 Bft)
18.07.2015 20:20 23,8 C 22,2 C 52 % 0 lf 1015,3 hPa 0,0 l/m 2 min 0 min 120 W/m 12,6 km/h (3 Bft)
18.07.2015 20:22 23,8 C 21,7 C 53 % 0 lf 1015,3 hPa 0,0 l/m 2 min 0 min 108 W/m 8,4 km/h (2 Bft)
18.07.2015 20:24 23,8 C 21,7 C 52 % 0 lf 1015,3 hPa 0,0 l/m 2 min 0 min 98 W/m 12,6 km/h (3 Bft)
18.07.2015 20:26 23,7 C 21,7 C 53 % 0 lf 1015,3 hPa 0,0 l/m 2 min 0 min 89 W/m 10,5 km/h (2 Bft)
18.07.2015 20:28 23,7 C 21,7 C 52 % 0 lf 1015,3 hPa 0,0 l/m 2 min 0 min 85 W/m 12,6 km/h (3 Bft)
18.07.2015 20:30 23,7 C 21,7 C 52 % 0 lf 1015,3 hPa 0,0 l/m 2 min 0 min 80 W/m 10,5 km/h (2 Bft)
18.07.2015 20:32 23,6 C 21,7 C 52 % 0 lf 1015,3 hPa 0,0 l/m 2 min 0 min 73 W/m 10,5 km/h (2 Bft)
18.07.2015 20:34 23,6 C 21,7 C 53 % 0 lf 1015,3 hPa 0,0 l/m 0 min 0 min 63 W/m 12,6 km/h (3 Bft)
18.07.2015 20:36 23,6 C 21,1 C 53 % 0 lf 1015,2 hPa 0,0 l/m 0 min 0 min 43 W/m 10,5 km/h (2 Bft)
18.07.2015 20:38 23,6 C 21,1 C 53 % 0 lf 1015,2 hPa 0,0 l/m 0 min 0 min 37 W/m 10,5 km/h (2 Bft)
18.07.2015 20:40 23,5 C 21,1 C 53 % 0 lf 1015,2 hPa 0,0 l/m 0 min 0 min 33 W/m 12,6 km/h (3 Bft)
18.07.2015 20:42 23,4 C 21,1 C 53 % 0 lf 1015,1 hPa 0,0 l/m 0 min 0 min 46 W/m 8,4 km/h (2 Bft)
18.07.2015 20:44 23,4 C 21,1 C 53 % 0 lf 1015,2 hPa 0,0 l/m 0 min 0 min 49 W/m 10,5 km/h (2 Bft)
18.07.2015 20:46 23,4 C 21,1 C 53 % 0 lf 1015,1 hPa 0,0 l/m 0 min 0 min 39 W/m 8,4 km/h (2 Bft)
18.07.2015 20:48 23,3 C 21,1 C 53 % 0 lf 1015,1 hPa 0,0 l/m 0 min 0 min 27 W/m 10,5 km/h (2 Bft)
18.07.2015 20:50 23,3 C 21,1 C 54 % 0 lf 1015,1 hPa 0,0 l/m 0 min 0 min 41 W/m 10,5 km/h (2 Bft)
18.07.2015 20:52 23,2 C 20,6 C 54 % 0 lf 1015,0 hPa 0,0 l/m 0 min 0 min 40 W/m 6,3 km/h (2 Bft)
18.07.2015 20:54 23,2 C 20,6 C 54 % 0 lf 1015,1 hPa 0,0 l/m 0 min 0 min 39 W/m 6,3 km/h (2 Bft)
18.07.2015 20:56 23,2 C 20,6 C 54 % 0 lf 1015,1 hPa 0,0 l/m 0 min 0 min 36 W/m 6,3 km/h (2 Bft)
18.07.2015 20:58 23,1 C 20,6 C 54 % 0 lf 1015,1 hPa 0,0 l/m 0 min 0 min 34 W/m 8,4 km/h (2 Bft)
18.07.2015 21:00 23,1 C 20,6 C 55 % 0 lf 1015,1 hPa 0,0 l/m 0 min 0 min 32 W/m 8,4 km/h (2 Bft)
18.07.2015 21:02 23,0 C 20,6 C 55 % 0 lf 1015,1 hPa 0,0 l/m 0 min 0 min 30 W/m 6,3 km/h (2 Bft)
18.07.2015 21:04 22,9 C 20,6 C 55 % 0 lf 1015,1 hPa 0,0 l/m 0 min 0 min 28 W/m 4,2 km/h (1 Bft)
18.07.2015 21:06 22,9 C 20,0 C 55 % 0 lf 1015,1 hPa 0,0 l/m 0 min 0 min 26 W/m 6,3 km/h (2 Bft)
18.07.2015 21:08 22,8 C 20,0 C 56 % 0 lf 1015,1 hPa 0,0 l/m 0 min 0 min 25 W/m 4,2 km/h (1 Bft)
18.07.2015 21:10 22,8 C 19,4 C 56 % 0 lf 1015,1 hPa 0,0 l/m 0 min 0 min 23 W/m 4,2 km/h (1 Bft)
18.07.2015 21:12 22,8 C 19,4 C 56 % 0 lf 1015,1 hPa 0,0 l/m 0 min 0 min 21 W/m 6,3 km/h (2 Bft)
18.07.2015 21:14 22,7 C 19,4 C 57 % 0 lf 1015,1 hPa 0,0 l/m 0 min 0 min 20 W/m 4,2 km/h (1 Bft)
18.07.2015 21:16 22,7 C 18,9 C 56 % 0 lf 1015,2 hPa 0,0 l/m 0 min 0 min 19 W/m 4,2 km/h (1 Bft)
18.07.2015 21:18 22,6 C 18,9 C 56 % 0 lf 1015,2 hPa 0,0 l/m 0 min 0 min 17 W/m 6,3 km/h (2 Bft)
18.07.2015 21:20 22,6 C 18,9 C 56 % 0 lf 1015,2 hPa 0,0 l/m 0 min 0 min 15 W/m 6,3 km/h (2 Bft)
18.07.2015 21:22 22,5 C 18,9 C 57 % 0 lf 1015,2 hPa 0,0 l/m 0 min 0 min 13 W/m 4,2 km/h (1 Bft)
18.07.2015 21:24 22,4 C 18,9 C 57 % 0 lf 1015,2 hPa 0,0 l/m 0 min 0 min 11 W/m 4,2 km/h (1 Bft)
18.07.2015 21:26 22,4 C 18,9 C 57 % 0 lf 1015,2 hPa 0,0 l/m 0 min 0 min 10 W/m 4,2 km/h (1 Bft)
18.07.2015 21:28 22,3 C 18,9 C 57 % 0 lf 1015,3 hPa 0,0 l/m 0 min 0 min 8 W/m 4,2 km/h (1 Bft)
18.07.2015 21:30 22,3 C 18,9 C 57 % 0 lf 1015,3 hPa 0,0 l/m 0 min 0 min 7 W/m 6,3 km/h (2 Bft)
18.07.2015 21:32 22,2 C 18,9 C 57 % 0 lf 1015,2 hPa 0,0 l/m 0 min 0 min 7 W/m 4,2 km/h (1 Bft)
18.07.2015 21:34 22,2 C 18,9 C 58 % 0 lf 1015,2 hPa 0,0 l/m 0 min 0 min 7 W/m 4,2 km/h (1 Bft)
18.07.2015 21:36 22,1 C 18,9 C 58 % 0 lf 1015,3 hPa 0,0 l/m 0 min 0 min 5 W/m 4,2 km/h (1 Bft)
18.07.2015 21:38 22,1 C 19,4 C 58 % 0 lf 1015,3 hPa 0,0 l/m 0 min 0 min 5 W/m 2,1 km/h (1 Bft)
18.07.2015 21:40 22,0 C 19,4 C 58 % 0 lf 1015,3 hPa 0,0 l/m 0 min 0 min 5 W/m 4,2 km/h (1 Bft)
18.07.2015 21:42 21,9 C 19,4 C 58 % 0 lf 1015,3 hPa 0,0 l/m 0 min 0 min 4 W/m 4,2 km/h (1 Bft)
18.07.2015 21:44 21,9 C 19,4 C 58 % 0 lf 1015,3 hPa 0,0 l/m 0 min 0 min 0 W/m 6,3 km/h (2 Bft)
18.07.2015 21:46 21,8 C 19,4 C 59 % 0 lf 1015,3 hPa 0,0 l/m 0 min 0 min 0 W/m 4,2 km/h (1 Bft)
18.07.2015 21:48 21,8 C 18,9 C 59 % 0 lf 1015,3 hPa 0,0 l/m 0 min 0 min 0 W/m 4,2 km/h (1 Bft)
18.07.2015 21:50 21,8 C 18,9 C 59 % 0 lf 1015,2 hPa 0,0 l/m 0 min 0 min 0 W/m 4,2 km/h (1 Bft)
18.07.2015 21:52 21,7 C 18,9 C 59 % 0 lf 1015,3 hPa 0,0 l/m 0 min 0 min 0 W/m 2,1 km/h (1 Bft)
18.07.2015 21:54 21,7 C 18,3 C 59 % 0 lf 1015,3 hPa 0,0 l/m 0 min 0 min 0 W/m 4,2 km/h (1 Bft)
18.07.2015 21:56 21,6 C 18,3 C 60 % 0 lf 1015,2 hPa 0,0 l/m 0 min 0 min 0 W/m 4,2 km/h (1 Bft)
18.07.2015 21:58 21,6 C 18,3 C 60 % 0 lf 1015,2 hPa 0,0 l/m 0 min 0 min 0 W/m 2,1 km/h (1 Bft)
18.07.2015 22:00 21,5 C 17,8 C 60 % 0 lf 1015,3 hPa 0,0 l/m 0 min 0 min 0 W/m 4,2 km/h (1 Bft)
18.07.2015 22:02 21,4 C 17,8 C 60 % 0 lf 1015,3 hPa 0,0 l/m 0 min 0 min 0 W/m 2,1 km/h (1 Bft)
18.07.2015 22:04 21,4 C 17,8 C 60 % 0 lf 1015,3 hPa 0,0 l/m 0 min 0 min 0 W/m 4,2 km/h (1 Bft)
18.07.2015 22:06 21,3 C 17,2 C 61 % 0 lf 1015,3 hPa 0,0 l/m 0 min 0 min 0 W/m 2,1 km/h (1 Bft)
18.07.2015 22:08 21,2 C 17,2 C 61 % 0 lf 1015,3 hPa 0,0 l/m 0 min 0 min 0 W/m 4,2 km/h (1 Bft)
18.07.2015 22:10 21,2 C 17,2 C 61 % 0 lf 1015,3 hPa 0,0 l/m 0 min 0 min 0 W/m 4,2 km/h (1 Bft)
18.07.2015 22:12 21,1 C 17,2 C 62 % 0 lf 1015,3 hPa 0,0 l/m 0 min 0 min 0 W/m 2,1 km/h (1 Bft)
18.07.2015 22:14 21,0 C 17,2 C 62 % 0 lf 1015,3 hPa 0,0 l/m 0 min 0 min 0 W/m 4,2 km/h (1 Bft)
18.07.2015 22:16 21,0 C 17,2 C 62 % 0 lf 1015,3 hPa 0,0 l/m 0 min 0 min 0 W/m 4,2 km/h (1 Bft)
18.07.2015 22:18 20,9 C 17,2 C 62 % 0 lf 1015,2 hPa 0,0 l/m 0 min 0 min 0 W/m 4,2 km/h (1 Bft)
18.07.2015 22:20 20,8 C 17,2 C 62 % 0 lf 1015,3 hPa 0,0 l/m 0 min 0 min 0 W/m 4,2 km/h (1 Bft)
18.07.2015 22:22 20,8 C 17,2 C 63 % 0 lf 1015,2 hPa 0,0 l/m 0 min 0 min 0 W/m 2,1 km/h (1 Bft)
18.07.2015 22:24 20,7 C 17,2 C 63 % 0 lf 1015,2 hPa 0,0 l/m 0 min 0 min 0 W/m 4,2 km/h (1 Bft)
18.07.2015 22:26 20,7 C 16,7 C 63 % 0 lf 1015,2 hPa 0,0 l/m 0 min 0 min 0 W/m 0,0 km/h (0 Bft)
18.07.2015 22:28 20,6 C 16,7 C 63 % 0 lf 1015,2 hPa 0,0 l/m 0 min 0 min 0 W/m 0,0 km/h (0 Bft)
18.07.2015 22:30 20,6 C 16,7 C 64 % 0 lf 1015,2 hPa 0,0 l/m 0 min 0 min 0 W/m 0,0 km/h (0 Bft)
18.07.2015 22:32 20,5 C 16,7 C 64 % 0 lf 1015,3 hPa 0,0 l/m 0 min 0 min 0 W/m 2,1 km/h (1 Bft)
18.07.2015 22:34 20,5 C 16,7 C 65 % 0 lf 1015,3 hPa 0,0 l/m 0 min 0 min 0 W/m 2,1 km/h (1 Bft)
18.07.2015 22:36 20,4 C 16,7 C 65 % 0 lf 1015,3 hPa 0,0 l/m 0 min 0 min 0 W/m 2,1 km/h (1 Bft)
18.07.2015 22:38 20,4 C 16,7 C 65 % 0 lf 1015,3 hPa 0,0 l/m 0 min 0 min 0 W/m 2,1 km/h (1 Bft)
18.07.2015 22:40 20,3 C 16,7 C 65 % 0 lf 1015,3 hPa 0,0 l/m 0 min 0 min 0 W/m 2,1 km/h (1 Bft)
18.07.2015 22:42 20,2 C 16,7 C 66 % 0 lf 1015,2 hPa 0,0 l/m 0 min 0 min 0 W/m 8,4 km/h (2 Bft)
18.07.2015 22:44 20,2 C 16,7 C 66 % 0 lf 1015,2 hPa 0,0 l/m 0 min 0 min 0 W/m 8,4 km/h (2 Bft)
18.07.2015 22:46 20,1 C 17,2 C 65 % 0 lf 1015,2 hPa 0,0 l/m 0 min 0 min 0 W/m 8,4 km/h (2 Bft)
18.07.2015 22:48 20,0 C 17,8 C 65 % 0 lf 1015,1 hPa 0,0 l/m 0 min 0 min 0 W/m 6,3 km/h (2 Bft)
18.07.2015 22:50 19,9 C 17,8 C 65 % 0 lf 1015,1 hPa 0,0 l/m 0 min 0 min 0 W/m 4,2 km/h (1 Bft)
18.07.2015 22:52 19,9 C 17,8 C 65 % 0 lf 1015,1 hPa 0,0 l/m 0 min 0 min 0 W/m 6,3 km/h (2 Bft)
18.07.2015 22:54 19,8 C 17,8 C 65 % 0 lf 1015,1 hPa 0,0 l/m 0 min 0 min 0 W/m 6,3 km/h (2 Bft)
18.07.2015 22:56 19,8 C 17,8 C 65 % 0 lf 1015,1 hPa 0,0 l/m 0 min 0 min 0 W/m 6,3 km/h (2 Bft)
18.07.2015 22:58 19,7 C 17,8 C 65 % 0 lf 1015,1 hPa 0,0 l/m 0 min 0 min 0 W/m 4,2 km/h (1 Bft)
18.07.2015 23:00 19,7 C 17,2 C 66 % 0 lf 1015,1 hPa 0,0 l/m 0 min 0 min 0 W/m 6,3 km/h (2 Bft)
18.07.2015 23:02 19,7 C 17,2 C 66 % 0 lf 1015,1 hPa 0,0 l/m 0 min 0 min 0 W/m 6,3 km/h (2 Bft)
18.07.2015 23:04 19,7 C 17,2 C 66 % 0 lf 1015,1 hPa 0,0 l/m 0 min 0 min 0 W/m 8,4 km/h (2 Bft)
18.07.2015 23:06 19,6 C 17,2 C 66 % 0 lf 1015,1 hPa 0,0 l/m 0 min 0 min 0 W/m 6,3 km/h (2 Bft)
18.07.2015 23:08 19,6 C 17,2 C 67 % 0 lf 1015,1 hPa 0,0 l/m 0 min 0 min 0 W/m 8,4 km/h (2 Bft)
18.07.2015 23:10 19,6 C 17,2 C 67 % 0 lf 1015,1 hPa 0,0 l/m 0 min 0 min 0 W/m 8,4 km/h (2 Bft)
18.07.2015 23:12 19,6 C 17,2 C 67 % 0 lf 1015,1 hPa 0,0 l/m 0 min 0 min 0 W/m 4,2 km/h (1 Bft)
18.07.2015 23:14 19,5 C 17,2 C 67 % 0 lf 1015,1 hPa 0,0 l/m 0 min 0 min 0 W/m 6,3 km/h (2 Bft)
18.07.2015 23:16 19,5 C 17,2 C 67 % 0 lf 1015,1 hPa 0,0 l/m 0 min 0 min 0 W/m 8,4 km/h (2 Bft)
18.07.2015 23:18 19,5 C 17,2 C 67 % 0 lf 1015,1 hPa 0,0 l/m 0 min 0 min 0 W/m 8,4 km/h (2 Bft)
18.07.2015 23:20 19,4 C 16,7 C 68 % 0 lf 1015,1 hPa 0,0 l/m 0 min 0 min 0 W/m 6,3 km/h (2 Bft)
18.07.2015 23:22 19,4 C 16,7 C 68 % 0 lf 1015,1 hPa 0,0 l/m 0 min 0 min 0 W/m 6,3 km/h (2 Bft)
18.07.2015 23:24 19,4 C 16,7 C 68 % 0 lf 1015,1 hPa 0,0 l/m 0 min 0 min 0 W/m 4,2 km/h (1 Bft)
18.07.2015 23:26 19,4 C 16,7 C 68 % 0 lf 1015,0 hPa 0,0 l/m 0 min 0 min 0 W/m 6,3 km/h (2 Bft)
18.07.2015 23:28 19,3 C 16,7 C 68 % 0 lf 1015,0 hPa 0,0 l/m 0 min 0 min 0 W/m 6,3 km/h (2 Bft)
18.07.2015 23:30 19,3 C 16,7 C 68 % 0 lf 1015,0 hPa 0,0 l/m 0 min 0 min 0 W/m 6,3 km/h (2 Bft)
18.07.2015 23:32 19,3 C 16,7 C 69 % 0 lf 1015,0 hPa 0,0 l/m 0 min 0 min 0 W/m 6,3 km/h (2 Bft)
18.07.2015 23:34 19,2 C 16,7 C 69 % 0 lf 1015,0 hPa 0,0 l/m 0 min 0 min 0 W/m 6,3 km/h (2 Bft)
18.07.2015 23:36 19,2 C 16,7 C 69 % 0 lf 1015,0 hPa 0,0 l/m 0 min 0 min 0 W/m 8,4 km/h (2 Bft)
18.07.2015 23:38 19,2 C 16,7 C 70 % 0 lf 1014,9 hPa 0,0 l/m 0 min 0 min 0 W/m 6,3 km/h (2 Bft)
18.07.2015 23:40 19,1 C 16,7 C 70 % 0 lf 1014,9 hPa 0,0 l/m 0 min 0 min 0 W/m 6,3 km/h (2 Bft)
18.07.2015 23:42 19,1 C 16,7 C 70 % 0 lf 1014,8 hPa 0,0 l/m 0 min 0 min 0 W/m 4,2 km/h (1 Bft)
18.07.2015 23:44 19,1 C 16,7 C 70 % 0 lf 1014,8 hPa 0,0 l/m 0 min 0 min 0 W/m 6,3 km/h (2 Bft)
18.07.2015 23:46 19,1 C 16,7 C 70 % 0 lf 1014,8 hPa 0,0 l/m 0 min 0 min 0 W/m 6,3 km/h (2 Bft)
18.07.2015 23:48 19,0 C 16,7 C 70 % 0 lf 1014,8 hPa 0,0 l/m 0 min 0 min 0 W/m 6,3 km/h (2 Bft)
18.07.2015 23:50 18,9 C 16,7 C 70 % 0 lf 1014,8 hPa 0,0 l/m 0 min 0 min 0 W/m 6,3 km/h (2 Bft)
18.07.2015 23:52 18,9 C 16,1 C 70 % 0 lf 1014,8 hPa 0,0 l/m 0 min 0 min 0 W/m 4,2 km/h (1 Bft)
18.07.2015 23:54 18,9 C 16,1 C 70 % 0 lf 1014,8 hPa 0,0 l/m 0 min 0 min 0 W/m 6,3 km/h (2 Bft)
18.07.2015 23:56 18,9 C 16,1 C 70 % 0 lf 1014,8 hPa 0,0 l/m 0 min 0 min 0 W/m 4,2 km/h (1 Bft)
18.07.2015 23:58 18,9 C 16,1 C 70 % 0 lf 1014,6 hPa 0,0 l/m 0 min 0 min 0 W/m 4,2 km/h (1 Bft)
_ Min-Zeit 07:20 06:24 15:52 00:00 00:00 - - - - 00:00
Minimum _ 17,4 C 16,1 C 44 % 0 lf 1013,3 hPa - - - - 0,0 km/h (0 Bft)
_ Max-Zeit 17:14 16:26 05:14 03:18 11:50 00:00 06:38 03:18 12:54 15:08
Maximum _ 28,1 C 27,8 C 91 % 15 lf 1017,9 hPa 0,0 l/m 2 min 2 min 990 W/m 35,6 km/h
W-NW (5 Bft)
Durchschnitt _ 22,0 C 20,6 C 69 % 1 lf 1015,8 hPa #0,0 l/m #10:55 h #18 min. 410 W/m 13,3 km/h (3 Bft)
© 2015 W. Hausmann